GFSNE_sfc_thetae_000.txt.gz
Theta_e
334 333 331 331 329 328 326 324 318 312 312 317 319 324 324 325 326 328 329 329 330 330 329 330 332 336 340 343 343 345 348 349 352 352 352 354 355 357
332 332 332 332 329 327 324 324 321 318 314 317 320 321 324 324 326 328 327 328 328 328 328 329 330 332 336 339 340 341 342 345 346 348 349 349 350 352
332 332 332 332 329 326 325 324 321 319 315 321 320 324 324 325 326 326 326 326 326 327 327 327 327 328 330 334 337 337 338 339 340 343 347 347 347 348
332 331 331 330 329 328 324 324 323 322 319 318 323 322 323 326 326 324 324 324 325 325 326 326 326 327 328 329 331 332 332 333 335 338 341 344 345 345
331 330 330 328 327 326 325 324 324 324 321 319 319 323 323 325 323 324 324 324 324 325 325 325 325 326 326 326 327 327 324 325 328 330 332 335 339 343
331 331 329 327 327 327 326 325 325 323 322 320 319 321 322 324 321 319 318 321 320 322 324 323 324 326 326 325 326 327 322 320 321 323 325 327 331 335
332 330 329 328 328 328 327 327 323 322 321 320 318 319 319 320 319 320 317 318 320 321 320 321 323 325 327 328 331 332 327 323 320 320 320 321 323 326
329 328 325 325 325 325 326 328 327 324 322 320 319 318 320 321 320 317 316 315 312 321 319 318 322 320 325 326 327 331 329 325 322 320 319 319 320 321
326 325 323 325 326 323 322 323 325 325 325 326 319 320 319 321 320 317 316 313 314 316 316 313 318 317 324 326 324 325 327 325 323 322 320 319 319 319
324 323 322 322 321 322 322 322 321 320 320 319 320 320 321 321 321 320 316 316 316 317 317 311 317 316 322 325 324 326 326 324 322 320 319 318 315 314
323 321 319 321 318 316 319 318 316 317 317 316 317 316 316 316 317 317 313 312 310 312 316 313 314 315 319 321 325 326 324 322 319 319 319 317 313 312
319 320 316 315 312 311 316 314 313 314 313 314 314 315 316 317 317 319 318 311 310 309 315 312 314 315 314 321 324 330 339 319 316 315 316 315 310 325
318 317 316 311 308 307 307 313 312 312 312 311 310 311 312 313 315 317 317 314 310 311 316 315 314 318 316 320 331 331 338 335 327 319 311 310 308 323
316 313 313 305 305 306 309 307 307 309 310 310 309 308 309 310 313 313 316 314 316 315 317 322 317 319 318 320 321 330 333 331 330 326 322 312 309 313
311 309 306 303 302 307 307 307 307 308 307 305 304 306 309 311 313 313 314 314 315 316 320 321 322 322 321 325 332 327 329 327 329 324 320 318 317 322
305 306 308 308 307 307 306 305 306 306 305 303 303 305 307 309 307 311 309 311 310 312 319 321 323 322 320 322 328 331 329 326 327 325 324 323 321 325
303 309 310 308 304 303 302 302 302 303 301 301 301 302 304 304 304 308 308 308 308 309 313 317 321 323 322 322 327 332 328 326 328 326 325 323 323 325
305 307 304 301 301 299 298 298 299 298 298 299 299 300 299 300 301 304 306 306 305 308 312 315 316 318 320 318 316 317 328 329 327 327 329 326 325 326
304 302 300 298 297 296 295 295 295 296 297 297 297 297 297 299 300 302 303 304 305 307 312 315 314 313 314 313 315 310 311 327 328 326 328 328 328 327
300 299 296 294 294 295 294 294 294 295 296 295 295 296 296 296 297 299 302 301 303 308 311 312 312 313 311 310 312 313 306 317 323 328 329 334 332 322
296 295 294 295 295 296 294 292 292 294 294 294 294 294 295 296 296 298 299 299 302 307 307 309 312 313 315 317 311 313 317 310 313 319 321 329 330 330
296 297 297 297 297 294 291 290 292 293 293 293 293 294 294 296 296 297 298 297 300 303 306 309 312 312 311 310 308 308 310 315 315 313 313 313 322 328
299 298 297 295 291 290 291 292 292 292 292 292 292 293 294 295 296 297 298 299 300 302 303 305 308 310 308 308 307 307 307 309 311 312 312 313 312 312

GFSNE_sfc_thetae_003.txt.gz
Theta_e
342 343 340 338 338 338 337 334 328 321 323 326 325 332 332 333 334 335 334 332 332 331 330 329 330 332 333 334 336 340 343 345 346 349 351 353 355 358
338 342 342 339 339 342 339 335 332 327 322 326 327 331 334 333 334 334 334 332 331 329 329 328 329 330 331 332 333 334 338 341 342 344 346 349 350 353
342 341 342 343 338 337 338 337 332 330 325 326 329 333 334 334 334 336 335 334 331 329 329 328 327 328 328 329 330 331 333 337 338 340 343 346 347 349
339 340 339 338 340 340 336 337 333 334 329 326 331 329 332 334 334 334 332 331 331 329 327 326 325 325 326 326 326 327 327 330 333 335 338 341 344 345
339 339 339 339 338 335 336 333 332 335 332 327 325 328 329 331 331 333 332 332 331 329 326 326 325 325 324 323 322 323 322 323 326 328 330 333 337 341
340 340 340 339 338 337 334 335 334 332 331 328 326 325 326 331 329 326 325 327 326 327 327 326 326 326 325 323 323 323 320 318 319 322 324 325 330 334
340 342 341 340 334 332 331 334 334 330 327 325 324 324 323 323 324 325 324 324 326 326 324 325 325 325 326 325 327 328 325 323 320 319 320 321 323 327
340 340 341 334 332 328 327 328 330 330 329 326 323 323 327 326 326 325 323 320 317 326 325 323 324 322 325 327 325 325 324 323 322 320 319 318 319 322
339 338 337 333 330 332 327 325 325 325 327 330 326 326 326 327 328 324 322 320 319 323 323 321 322 322 324 325 323 322 322 321 321 322 319 318 318 318
338 338 336 335 333 328 328 327 328 330 331 328 328 327 327 327 324 322 322 320 322 323 325 317 320 319 321 324 322 322 322 321 320 321 320 317 314 313
336 336 332 330 322 317 322 324 326 326 322 318 317 316 315 315 317 319 316 317 316 318 321 313 314 314 316 318 324 323 321 319 318 319 320 317 313 311
334 330 318 322 313 313 322 324 322 323 322 321 321 320 320 321 318 321 317 313 315 313 316 312 313 314 311 318 323 328 329 318 316 316 317 316 312 332
329 328 326 311 309 308 308 323 319 315 318 318 318 318 319 320 321 322 322 319 317 313 316 315 313 313 313 314 321 323 332 331 332 324 313 312 309 325
329 328 322 307 304 307 311 308 308 309 316 315 315 314 315 315 317 317 319 320 322 317 317 316 313 313 315 315 317 326 333 335 339 336 331 317 309 314
324 310 305 303 303 306 310 308 307 315 313 312 311 311 312 313 316 315 316 321 321 320 316 317 316 318 319 318 320 322 327 334 337 333 330 322 320 324
311 317 311 309 308 312 311 311 313 312 310 309 308 309 311 311 310 309 310 315 314 316 315 318 319 319 319 321 322 321 328 329 330 330 327 327 328 332
312 318 318 317 316 315 314 313 311 310 308 308 307 307 307 307 306 308 310 313 313 312 311 315 318 320 320 319 322 323 328 330 330 327 327 325 326 330
312 314 314 313 313 312 311 309 309 305 306 305 305 305 304 304 304 305 311 313 312 313 312 314 314 315 319 317 317 312 315 330 329 330 331 328 325 329
312 313 312 311 310 309 307 306 304 304 304 303 304 304 303 303 303 304 309 311 308 310 312 314 313 311 309 308 316 313 311 317 330 326 330 330 330 329
313 311 309 307 306 306 306 304 302 301 301 302 302 303 303 302 302 303 307 306 305 304 311 315 313 310 308 309 311 316 309 313 320 327 327 332 330 324
309 308 306 306 307 307 306 302 300 298 299 301 301 302 302 302 302 303 305 302 303 304 306 310 311 312 314 315 311 311 314 309 311 316 321 329 330 330
307 306 306 308 307 306 301 299 299 301 301 301 301 301 302 302 302 302 304 306 308 308 309 309 312 312 311 309 308 309 310 312 315 313 313 312 325 329
308 308 307 307 304 302 300 300 302 301 301 301 301 301 302 301 302 302 303 305 307 304 301 304 312 309 307 307 308 308 308 308 309 311 312 312 313 311

GFSNE_sfc_thetae_006.txt.gz
Theta_e
339 341 339 334 334 334 334 334 330 322 322 328 328 335 334 334 337 337 337 336 333 331 330 330 330 331 331 332 333 333 334 335 339 343 345 349 354 357
333 338 340 336 336 336 336 334 333 329 323 328 328 333 336 336 338 338 337 337 334 332 331 329 330 331 331 331 331 332 332 333 334 337 340 342 346 351
338 339 341 344 337 334 334 333 331 330 326 327 329 334 337 337 337 339 338 337 335 333 331 330 328 328 329 329 329 329 330 330 331 333 336 340 342 346
337 340 340 338 341 342 336 338 335 335 329 330 333 331 337 337 336 338 335 334 334 333 330 328 327 326 325 325 325 325 325 326 327 329 331 335 339 341
339 339 339 340 340 336 337 333 331 331 332 328 328 331 330 331 333 337 337 338 332 333 329 328 326 326 325 323 322 321 319 320 321 322 325 327 333 337
339 340 340 340 339 339 336 337 337 333 333 328 327 327 329 332 331 326 326 328 327 329 331 328 328 328 327 324 322 322 318 316 316 318 319 321 325 330
340 340 342 341 337 336 334 338 337 331 327 326 324 324 322 323 328 327 324 326 329 330 327 326 325 327 329 326 328 328 323 320 318 317 317 317 319 322
340 342 344 340 337 332 330 329 330 331 329 325 324 324 329 329 328 326 325 323 320 329 327 322 327 327 327 328 326 324 322 320 320 319 318 316 317 318
343 342 340 335 336 339 331 327 327 325 325 330 329 328 330 331 330 328 326 324 322 323 326 322 327 324 327 326 323 323 321 319 319 318 318 318 317 316
342 340 339 335 336 336 336 333 332 333 334 331 332 330 330 330 327 325 324 324 324 325 329 321 324 321 325 326 323 321 319 318 318 318 317 316 314 313
337 337 336 336 327 321 329 329 330 330 326 321 319 317 316 316 318 321 320 318 318 320 325 322 321 321 322 321 323 321 319 317 316 317 317 316 313 311
332 334 323 327 316 315 326 327 326 327 328 326 326 324 321 324 319 324 320 316 317 317 323 320 319 317 311 317 320 322 321 320 314 314 315 315 312 324
332 337 336 315 312 310 310 325 323 321 322 323 322 320 320 322 322 325 326 321 317 315 321 323 319 315 312 311 316 319 323 323 325 326 311 312 310 319
337 333 323 308 307 308 311 311 310 310 320 320 318 316 317 318 319 320 323 322 320 322 327 329 319 313 310 310 312 321 324 326 329 330 333 320 310 311
335 313 307 305 304 305 310 311 308 319 320 317 314 315 316 317 319 321 322 326 326 328 326 329 320 316 314 312 313 319 318 323 328 340 341 332 323 321
312 320 316 311 308 311 315 313 319 320 316 314 314 315 316 315 314 314 311 311 315 319 327 327 321 318 313 316 319 319 322 320 329 335 335 335 334 333
322 324 322 322 320 321 321 320 319 316 314 314 313 313 312 311 310 311 309 311 314 316 316 320 322 319 316 316 315 316 315 316 329 330 330 328 330 336
316 320 319 319 318 318 318 316 315 311 313 312 311 310 309 308 307 307 308 311 313 316 310 314 323 315 313 316 317 316 315 314 316 328 329 326 326 332
317 319 317 318 317 316 314 312 311 312 312 310 309 308 307 307 306 306 307 310 312 312 311 314 321 311 306 305 315 313 312 313 315 316 331 329 329 329
318 318 317 316 315 313 312 311 310 309 308 307 307 307 306 306 305 305 306 309 311 314 310 316 315 311 306 307 308 314 308 311 312 314 323 332 337 324
318 315 315 313 313 312 312 310 308 306 303 305 306 305 305 305 305 305 305 304 307 312 310 307 313 313 315 314 309 309 314 309 310 312 314 320 329 329
317 314 313 313 313 312 310 307 305 304 305 305 305 305 305 305 304 304 305 305 310 311 307 304 315 310 310 308 307 308 309 311 311 312 311 312 309 315
315 314 314 312 312 309 306 304 303 304 305 305 304 304 304 304 305 305 304 305 306 308 310 313 311 306 307 307 306 307 307 307 307 307 310 310 312 312

GFSNE_sfc_thetae_009.txt.gz
Theta_e
344 346 340 336 334 333 334 340 333 323 325 332 330 341 339 336 338 337 338 339 336 332 332 331 332 333 332 333 333 333 333 334 334 335 336 337 341 346
336 345 345 336 337 335 337 334 332 327 322 329 330 338 341 336 339 338 337 339 336 334 333 331 331 332 332 333 332 332 332 333 333 333 334 335 336 341
345 341 343 347 337 334 333 333 330 331 325 329 331 337 346 343 340 342 339 341 337 334 334 332 330 330 330 330 330 330 330 330 331 331 332 332 333 335
340 343 341 338 347 348 336 345 340 339 330 333 334 332 339 343 345 344 338 334 336 333 333 331 329 328 327 327 326 326 325 326 326 327 329 330 331 332
342 343 342 345 346 339 343 337 335 337 336 328 328 330 330 329 334 341 338 336 335 333 329 328 328 327 326 324 322 321 320 320 321 321 323 324 327 329
344 344 344 343 344 345 342 345 341 336 334 330 328 328 330 333 335 328 328 328 328 331 332 329 330 330 327 324 323 322 318 316 316 317 318 319 321 324
343 342 344 343 339 339 339 338 341 334 330 328 327 327 327 327 327 329 329 329 327 331 329 331 331 331 330 328 329 328 323 321 317 316 315 315 316 318
341 345 346 341 338 333 333 332 331 334 333 327 327 326 330 330 328 327 328 324 319 330 329 327 328 326 328 331 329 326 323 321 319 318 317 315 315 316
346 344 341 339 337 338 333 329 328 327 327 333 331 330 330 332 332 331 329 325 322 324 326 322 326 326 331 328 325 323 321 320 319 318 317 316 315 315
346 347 347 344 341 339 338 333 334 338 337 332 333 334 335 333 329 327 327 326 325 326 329 320 326 326 329 331 325 323 321 319 318 317 316 315 313 312
346 346 344 342 333 324 333 329 329 331 330 326 324 320 318 318 320 322 319 317 316 318 324 322 323 323 326 325 327 323 319 317 316 316 316 315 312 310
342 346 327 332 318 318 330 328 329 331 330 330 330 325 322 325 319 324 323 319 317 317 323 320 319 319 317 323 324 322 320 317 315 314 314 313 311 319
338 337 336 316 314 312 313 328 326 323 328 324 323 323 326 325 321 325 330 323 317 316 321 319 316 320 322 318 318 318 319 319 320 322 314 310 309 314
339 337 335 314 314 311 312 315 313 312 320 319 320 321 320 317 319 322 328 326 323 325 325 325 322 322 320 314 311 316 317 320 322 323 325 321 311 309
331 313 312 309 308 307 308 313 311 318 319 320 319 316 316 318 325 324 327 330 329 326 323 329 327 324 321 314 312 312 316 318 320 323 324 328 330 320
317 322 318 316 311 315 316 315 319 321 320 317 315 317 317 316 315 315 312 311 310 312 327 330 326 326 320 316 314 312 316 312 317 319 320 337 332 327
327 328 325 324 323 323 322 322 321 322 318 317 315 314 312 312 312 312 310 309 308 312 315 321 324 327 326 318 312 313 314 313 314 316 318 329 335 332
322 322 321 321 320 320 321 321 320 317 317 316 313 312 310 310 309 308 309 308 308 313 314 318 318 320 315 317 318 313 314 312 312 314 317 324 326 330
318 319 319 320 319 319 318 317 315 315 318 312 311 310 309 308 307 307 307 307 308 313 315 319 317 314 306 305 313 314 311 311 310 312 313 315 325 329
318 318 318 319 318 316 315 314 314 313 311 310 308 308 308 307 306 306 306 307 307 312 314 314 309 310 307 308 309 312 308 310 308 308 309 313 318 323
319 319 318 316 315 315 314 314 313 310 307 305 307 307 307 306 306 306 306 303 304 311 311 312 314 310 312 316 310 309 311 309 309 308 309 307 314 329
319 318 317 316 315 314 313 311 309 307 307 307 306 306 307 306 305 305 305 304 306 306 308 315 314 313 308 307 306 308 308 309 310 310 310 308 307 307
318 318 317 317 316 314 311 308 306 305 306 306 306 306 306 305 306 305 305 305 305 305 307 310 316 314 310 307 305 308 307 306 306 305 306 308 309 308

GFSNE_sfc_thetae_012.txt.gz
Theta_e
346 344 342 339 339 339 339 336 331 323 325 330 331 338 336 333 338 336 338 340 341 336 332 332 333 333 334 334 334 334 334 333 334 334 334 333 333 334
343 343 342 341 341 340 336 335 335 329 324 331 332 335 337 338 341 336 337 339 337 334 332 331 332 333 333 333 333 333 333 333 333 333 333 334 334 333
342 343 341 344 340 338 341 338 334 332 327 328 332 334 334 334 336 338 341 338 336 336 334 333 332 332 332 332 331 331 331 331 331 332 332 333 333 334
341 341 340 339 342 342 341 338 337 338 332 328 332 332 335 339 339 335 338 335 334 335 334 332 330 329 329 328 327 327 327 327 327 328 329 330 331 332
340 340 338 341 342 341 340 338 336 336 336 330 328 331 332 331 330 332 332 335 337 336 331 329 329 328 327 325 324 322 320 320 321 322 323 325 327 328
343 342 341 338 341 341 339 340 339 337 334 328 328 329 331 332 333 328 327 331 330 331 333 330 330 330 328 325 323 323 319 317 316 317 318 319 321 323
345 342 343 344 341 340 341 338 339 335 330 325 322 324 325 325 325 326 325 326 327 329 328 326 326 327 326 328 330 329 324 321 317 316 315 315 316 317
341 343 343 340 337 334 331 332 336 334 328 325 323 322 324 327 328 326 324 321 319 327 326 322 324 323 323 323 326 325 323 322 320 318 316 315 315 315
344 342 341 338 340 341 332 330 330 329 329 327 324 325 326 328 327 325 324 323 320 322 321 317 321 320 324 326 326 325 323 319 318 318 317 316 315 314
342 343 341 338 341 340 339 337 334 332 332 330 328 328 330 331 329 326 322 321 321 322 322 316 321 318 322 325 325 324 320 319 318 317 316 314 312 311
342 340 340 341 333 325 336 333 331 333 331 325 328 325 321 319 321 322 318 316 315 317 322 318 318 319 320 318 320 322 320 317 316 315 316 315 313 311
342 340 328 335 323 320 332 331 328 329 332 331 330 326 321 323 320 321 320 316 316 316 320 317 315 313 308 315 320 322 322 317 314 313 314 314 312 315
338 337 340 321 316 316 317 331 326 320 325 326 325 322 322 324 324 327 325 322 318 315 318 317 313 312 312 314 318 321 319 318 319 318 314 312 309 311
340 338 336 313 311 315 313 315 313 314 320 320 319 318 319 319 320 321 323 322 321 319 319 320 317 315 315 313 313 318 318 317 317 319 319 316 313 312
336 323 313 312 316 311 311 313 314 317 317 317 317 317 317 320 322 320 323 324 325 323 319 320 321 319 317 314 314 316 314 315 317 318 317 315 316 318
317 317 317 316 316 318 317 311 316 319 320 321 318 318 321 317 315 316 313 312 308 308 314 324 322 320 315 316 316 314 315 311 315 315 314 314 316 319
322 324 321 321 321 320 319 320 320 320 320 321 319 317 313 313 313 314 311 308 307 308 309 315 321 320 320 316 312 313 313 312 313 312 310 310 314 317
325 329 326 325 323 324 320 321 319 319 319 318 316 314 312 311 310 310 310 309 307 308 309 315 316 314 313 314 318 312 312 311 311 310 310 309 309 313
326 323 321 326 323 322 320 319 318 320 319 317 315 313 311 310 308 308 308 308 307 307 308 315 310 311 307 305 311 314 311 310 309 307 308 307 306 309
319 319 324 323 322 320 319 318 317 316 314 312 309 308 308 310 308 307 307 306 305 305 306 313 312 311 308 306 307 312 308 310 307 305 305 307 309 312
319 319 322 320 320 319 319 319 316 314 310 309 308 309 310 307 307 306 306 303 304 306 306 305 314 311 312 312 307 307 311 309 308 306 305 303 303 306
324 322 320 320 320 319 318 317 314 312 310 310 310 309 309 308 305 305 304 304 304 306 306 304 314 313 310 306 303 305 308 307 309 309 308 305 303 298
325 322 322 321 320 318 317 313 310 308 308 309 308 307 308 305 307 306 304 304 304 304 303 302 310 314 307 305 305 305 303 304 305 303 303 306 306 306

GFSNE_sfc_thetae_015.txt.gz
Theta_e
329 330 329 328 329 329 326 324 319 314 315 321 322 330 330 329 334 332 327 337 338 336 333 332 333 334 335 336 335 335 335 335 335 334 334 333 332 333
334 332 330 329 330 329 328 325 325 320 316 323 322 325 328 331 335 333 329 338 337 336 333 331 331 333 334 335 334 334 334 334 334 334 334 334 334 333
333 330 333 331 329 327 330 327 324 323 318 319 323 325 327 324 327 331 333 332 330 334 333 332 330 331 332 333 333 333 332 332 333 333 333 334 334 334
332 331 329 334 329 329 333 329 329 328 323 319 324 324 324 327 329 330 331 333 332 335 334 332 330 329 329 329 329 329 328 328 328 329 330 332 332 333
334 333 331 331 328 331 333 332 328 329 327 324 322 325 326 325 323 324 324 325 331 335 331 329 329 328 327 325 324 323 321 321 322 323 324 325 327 330
334 335 334 332 331 332 332 331 331 328 326 323 322 323 324 326 325 323 322 322 323 330 332 330 330 330 329 325 324 324 319 317 316 317 318 319 321 323
334 337 336 337 336 334 333 330 331 329 326 322 319 317 319 319 321 321 321 321 322 323 323 322 322 320 321 324 329 330 325 321 318 317 316 315 315 317
334 338 336 338 337 335 335 334 334 329 324 320 318 318 319 320 321 320 319 317 315 322 318 318 319 317 317 319 324 324 322 321 319 318 316 314 314 315
337 337 337 337 335 332 331 330 329 329 328 323 320 319 318 320 321 318 317 317 316 321 313 313 315 313 318 321 323 323 321 320 319 318 317 316 315 314
338 338 335 334 333 335 332 329 328 329 328 326 323 325 323 325 324 322 319 316 314 316 316 310 315 313 315 316 322 322 320 319 317 316 315 313 311 309
335 336 335 334 329 323 330 329 329 328 328 324 326 326 322 321 323 317 314 310 309 310 313 312 314 311 313 310 312 318 317 316 316 316 316 314 311 310
329 335 329 331 322 322 329 327 323 323 323 322 321 321 318 318 320 316 319 310 309 309 315 311 308 306 305 306 309 314 317 316 314 313 313 312 310 313
329 329 330 322 320 317 318 325 325 315 316 312 314 314 314 315 317 321 320 314 311 312 316 310 306 306 305 305 311 314 317 317 317 315 312 310 309 311
328 330 328 318 312 315 318 316 311 313 310 310 311 311 311 311 314 314 316 318 318 315 313 311 309 308 308 308 309 313 315 317 316 315 315 314 311 311
327 321 313 312 313 314 314 313 313 310 309 309 310 311 309 312 310 309 309 308 306 306 309 307 311 311 310 308 310 312 312 314 315 314 314 314 313 314
317 315 316 315 314 313 311 310 308 308 310 310 311 310 309 306 305 306 304 302 300 300 304 307 310 317 312 310 311 312 312 309 313 312 312 312 312 312
316 314 311 310 309 309 311 312 312 312 312 315 312 306 303 304 304 303 301 299 298 299 300 305 311 313 316 314 310 310 310 310 312 311 310 308 309 311
316 315 312 313 313 314 313 312 314 316 315 312 305 304 302 302 300 301 300 299 299 299 300 300 306 306 307 308 315 310 309 310 311 310 309 306 305 308
316 316 313 311 312 311 313 313 310 314 309 305 302 299 299 299 301 299 299 299 298 298 298 298 303 303 302 302 306 312 310 310 308 306 306 305 303 304
311 310 310 309 309 308 306 306 305 303 302 299 297 297 297 299 298 298 298 297 296 296 297 300 302 304 305 304 304 308 308 306 305 304 304 304 304 308
309 309 314 308 307 307 307 306 303 301 298 297 297 298 300 297 297 297 297 299 299 296 297 296 297 310 306 305 301 302 306 306 305 304 303 299 299 301
311 310 308 308 307 306 306 303 301 300 299 298 300 298 297 297 296 296 297 295 296 296 297 296 299 305 303 301 299 300 301 304 306 307 306 303 299 295
312 310 309 308 307 307 305 302 300 298 297 298 296 295 296 296 297 296 295 297 296 296 295 295 296 304 301 300 301 298 299 300 301 300 300 303 302 302

GFSNE_sfc_thetae_018.txt.gz
Theta_e
328 326 327 325 326 326 325 321 316 311 313 318 320 326 328 329 332 334 328 334 336 335 333 332 333 335 336 337 337 337 337 336 336 336 335 335 332 333
330 326 326 326 326 327 325 322 320 316 312 319 321 320 323 329 331 333 328 334 335 335 333 332 332 333 334 335 335 335 335 335 335 335 335 335 335 334
332 330 329 327 326 325 327 324 321 324 319 318 320 321 326 325 325 325 330 328 329 333 333 332 331 331 332 333 333 333 333 333 333 334 335 335 334 335
329 329 328 331 328 326 326 326 324 325 320 317 320 322 322 323 326 328 329 330 328 333 332 331 330 330 329 329 328 329 328 329 330 330 331 333 334 334
331 329 328 327 327 328 328 326 327 327 326 322 320 322 322 323 323 322 322 324 328 334 330 329 328 327 326 324 323 321 320 321 322 323 325 327 329 331
332 332 330 330 330 328 330 327 327 328 324 324 322 320 321 322 322 321 320 320 321 327 330 328 329 329 326 323 324 324 320 317 316 317 318 319 322 324
332 332 332 335 335 331 330 328 327 328 326 324 320 318 318 316 317 319 318 319 320 321 319 319 318 317 317 321 324 327 324 321 319 317 315 315 315 317
332 331 332 337 335 332 331 331 331 328 323 322 322 319 319 317 318 319 317 314 312 319 316 316 315 314 315 316 322 324 322 320 319 318 316 315 314 315
332 332 333 338 334 334 331 330 327 327 330 329 326 322 318 319 318 316 316 315 314 319 313 310 312 312 315 318 322 322 320 319 318 317 316 316 315 314
336 334 334 335 332 331 330 327 326 329 329 329 326 326 323 322 321 321 319 316 314 315 313 309 311 312 315 315 320 321 320 317 316 315 315 313 311 309
335 336 334 332 326 324 330 326 328 330 328 323 324 322 321 320 322 318 316 311 309 310 311 310 311 309 310 310 311 316 316 314 314 315 315 313 311 309
331 332 327 331 322 319 329 327 325 325 324 323 319 319 319 318 319 318 315 310 309 309 312 310 308 306 304 304 305 307 310 313 312 312 313 312 309 313
329 331 332 319 315 315 319 326 324 322 319 313 311 311 312 312 312 314 315 314 310 308 314 311 306 304 302 302 306 310 312 314 314 314 311 309 308 309
331 330 326 314 311 312 317 317 315 314 312 310 309 308 308 310 308 310 309 312 314 313 314 309 306 305 301 303 304 308 310 313 312 314 314 311 309 309
327 322 313 309 309 314 315 316 311 309 307 306 306 307 309 308 307 305 306 305 304 303 307 303 305 303 306 306 306 306 308 310 312 312 313 312 312 312
319 316 315 314 313 313 312 311 309 307 306 307 307 308 307 303 302 303 301 300 297 298 302 303 303 305 308 308 306 308 309 306 310 311 312 312 312 311
314 313 313 313 314 309 308 308 307 307 308 309 310 308 302 301 301 300 299 297 295 296 298 300 302 305 309 309 308 309 307 308 310 310 310 308 308 308
313 310 310 309 309 309 308 308 310 312 309 310 306 302 301 300 298 298 297 296 295 296 296 296 297 301 303 305 313 307 305 306 309 309 307 304 303 306
314 314 312 312 312 311 311 310 310 310 309 304 300 297 296 296 296 297 296 295 295 294 295 294 296 298 297 298 303 309 304 306 306 303 303 303 302 301
311 312 309 309 307 307 305 304 302 300 298 297 296 295 295 296 297 295 294 293 294 293 293 295 296 294 298 299 299 303 305 303 302 301 301 302 302 304
307 306 308 305 305 304 303 302 301 299 297 296 295 295 296 295 294 294 294 297 296 293 293 294 295 304 303 301 298 298 301 304 303 301 300 298 296 296
309 307 306 305 304 304 302 301 300 299 296 295 296 296 295 294 293 294 294 293 294 293 293 295 294 301 299 297 296 296 298 300 303 305 305 301 295 292
307 307 305 305 304 304 302 300 299 297 295 295 295 294 293 293 294 293 293 294 294 293 292 293 293 300 298 297 298 296 296 297 298 298 299 303 301 300

GFSNE_sfc_thetae_024.txt.gz
Theta_e
334 334 332 331 332 330 327 327 326 320 321 326 327 330 334 334 334 337 340 337 336 336 333 333 334 335 336 337 338 339 339 340 340 339 339 338 336 335
333 333 332 331 331 331 329 328 325 325 321 324 327 329 331 333 333 338 336 336 336 333 333 332 333 334 335 336 336 336 337 337 337 338 338 337 337 338
335 332 331 332 330 330 330 328 326 324 324 326 327 329 331 334 334 334 333 335 334 331 332 331 331 332 333 333 333 333 334 334 335 335 336 337 337 337
334 333 332 330 331 331 329 331 329 329 327 328 327 328 330 332 333 334 333 333 334 332 330 329 329 328 328 328 327 327 327 326 327 328 330 333 334 336
335 335 333 332 331 331 331 330 330 329 330 327 328 328 329 330 331 331 331 332 332 332 329 328 328 327 326 323 321 320 318 318 319 320 322 324 327 330
337 335 334 333 332 331 332 333 333 332 331 328 328 329 328 329 329 327 327 329 327 330 332 328 328 328 325 322 322 322 319 317 316 316 317 318 320 323
337 336 336 335 334 332 332 333 334 331 331 329 327 327 327 326 326 326 322 324 326 328 329 329 327 328 328 323 324 325 321 319 317 316 315 315 315 317
335 336 338 335 334 330 330 330 333 331 331 329 327 326 327 329 327 323 322 321 321 328 326 326 326 326 328 325 323 322 321 320 319 318 316 315 314 315
337 335 334 337 335 336 330 329 329 328 331 332 330 324 327 331 328 322 320 323 323 326 324 322 326 324 326 324 321 321 320 319 318 317 316 314 313 312
339 337 337 337 336 335 335 334 334 334 332 331 335 331 330 332 329 327 327 325 325 326 324 319 324 320 323 324 321 320 319 318 317 315 314 312 310 309
338 338 338 337 328 325 336 334 333 331 326 325 324 323 323 322 327 327 322 319 319 320 321 319 320 318 320 320 322 319 316 314 313 312 312 312 309 307
338 338 328 334 321 320 336 336 333 329 330 330 328 324 322 321 321 328 324 318 317 315 320 317 317 317 310 317 315 317 317 312 309 309 311 311 308 318
337 336 336 321 316 313 321 334 329 329 327 330 326 321 319 319 319 320 322 320 317 316 320 319 317 315 312 310 312 315 316 316 318 318 311 307 307 310
336 335 333 315 312 310 315 319 314 320 325 322 319 316 316 318 316 317 318 319 321 320 321 321 314 313 311 307 305 312 314 316 318 317 318 313 308 308
335 328 315 307 306 310 313 312 314 324 320 317 316 315 317 319 317 314 314 313 313 313 312 314 313 313 310 309 306 307 309 313 315 317 316 314 313 314
320 321 317 317 316 318 317 316 324 321 318 317 314 315 316 315 313 311 311 309 307 308 312 310 310 309 306 308 309 307 309 309 314 314 313 312 312 312
319 322 321 321 319 319 319 318 318 317 315 314 315 315 315 313 311 309 307 306 306 305 304 307 309 309 308 309 306 307 307 311 313 311 309 307 308 309
323 324 322 321 320 318 316 315 315 314 315 314 315 315 315 312 309 305 305 305 304 304 303 304 303 305 306 308 309 306 311 311 311 310 308 304 304 307
324 324 323 320 319 317 316 315 315 316 316 315 315 314 311 307 304 304 304 303 303 303 303 303 302 304 301 299 305 310 312 309 308 305 305 304 303 305
323 321 320 318 317 316 316 316 316 315 316 315 312 308 305 304 304 304 302 302 302 302 302 304 302 302 301 302 303 310 305 308 306 304 303 305 306 306
320 319 318 317 317 316 316 316 314 313 310 307 305 303 304 305 304 303 302 299 300 302 301 302 304 302 305 306 305 306 308 303 305 304 303 301 300 299
318 318 317 317 315 315 314 312 309 306 306 305 305 303 303 304 303 302 302 302 302 302 301 302 304 305 309 307 305 305 304 305 306 306 305 303 300 295
317 317 315 314 313 313 311 309 309 308 307 306 305 304 303 302 302 303 302 302 301 301 301 301 303 304 306 305 303 303 303 302 301 301 302 305 304 304

GFSNE_sfc_thetae_027.txt.gz
Theta_e
347 346 343 342 342 340 337 336 331 325 326 334 332 342 343 344 343 343 345 342 338 336 335 334 335 336 337 338 338 339 340 340 341 340 341 341 340 338
344 346 345 342 342 341 340 338 335 332 327 334 334 339 342 343 341 344 343 339 337 335 334 333 333 334 335 336 337 337 337 338 338 338 338 339 339 339
346 345 345 346 340 340 340 339 337 335 330 334 337 342 340 341 340 344 342 343 340 334 333 332 331 332 333 334 333 333 333 334 334 335 335 336 337 338
346 345 344 341 343 343 339 342 339 339 333 336 338 337 339 342 343 343 340 338 340 336 332 332 331 330 330 329 328 327 326 326 327 328 329 330 332 333
348 346 345 344 341 338 339 337 337 339 338 334 333 338 338 339 339 342 342 340 339 335 329 330 330 329 328 326 324 321 319 318 319 321 322 324 326 327
350 348 346 345 343 341 340 341 341 338 338 335 334 334 336 339 338 335 334 336 334 333 334 331 331 331 328 324 322 323 320 318 317 317 318 319 321 322
351 349 347 346 340 340 340 343 344 339 336 335 334 334 333 332 329 334 331 332 334 334 333 334 335 333 333 327 326 326 323 321 318 317 316 316 316 317
351 350 349 342 338 332 332 335 342 342 340 336 335 334 337 331 334 332 331 329 325 333 331 331 335 332 333 334 329 325 322 321 319 318 317 315 315 315
353 352 348 345 339 342 332 330 331 331 335 343 339 339 336 335 336 335 334 331 329 336 334 328 332 330 330 329 325 323 321 319 318 318 317 315 314 312
354 353 351 349 345 343 345 341 340 339 338 338 342 343 339 341 338 338 338 336 335 334 336 324 326 325 327 326 323 322 320 318 317 316 315 313 310 308
354 353 351 349 336 328 343 342 339 341 330 326 328 326 325 326 331 336 332 329 325 326 329 323 323 322 322 322 322 321 316 314 312 312 312 311 309 308
353 352 330 342 323 321 343 344 341 342 342 338 336 328 328 329 323 338 332 324 321 319 326 319 319 318 313 316 318 317 316 313 311 310 311 310 308 320
348 344 348 322 316 315 323 346 342 343 336 339 336 335 334 332 329 330 330 325 321 319 323 322 317 315 312 311 313 315 314 315 316 316 310 309 307 310
344 346 347 317 313 312 320 323 316 327 338 336 333 330 328 325 325 327 329 328 326 325 326 326 315 312 310 309 307 311 313 315 316 315 316 314 310 309
346 338 321 311 311 314 314 314 316 337 335 331 329 328 326 326 327 326 325 325 325 324 320 323 318 316 313 308 307 309 309 311 313 315 318 318 316 316
324 322 321 321 321 325 320 321 337 337 333 331 329 327 325 324 323 322 320 320 317 316 320 320 319 317 309 309 310 309 310 307 313 316 317 316 313 313
322 325 326 327 326 327 331 331 335 331 330 329 326 323 322 323 322 321 320 318 313 312 311 312 318 318 314 315 308 308 308 311 314 314 314 310 310 311
327 327 329 328 328 329 328 328 330 327 329 326 325 323 322 322 321 319 317 313 312 310 309 309 310 309 310 314 315 308 309 310 312 313 312 307 307 310
328 329 329 329 330 328 328 328 328 327 327 324 324 323 324 323 317 315 313 312 309 309 308 309 309 307 304 302 309 311 310 310 309 308 307 307 306 307
331 330 329 329 328 326 327 328 326 325 324 324 324 324 322 319 314 313 311 309 308 307 307 309 309 308 305 304 305 310 305 312 308 306 305 307 307 307
331 331 331 329 327 327 326 326 326 325 325 324 323 320 317 315 313 312 309 303 303 307 306 306 309 302 309 313 307 306 310 305 307 307 306 304 303 304
331 331 332 331 328 326 326 325 324 321 322 320 318 316 314 313 311 309 308 307 307 307 307 308 310 310 310 307 305 307 307 308 307 307 307 306 302 298
334 333 331 328 326 326 325 323 320 318 317 317 315 314 313 310 310 309 308 307 306 306 306 306 307 309 307 308 305 305 306 305 303 302 304 305 305 304

GFSNE_sfc_thetae_030.txt.gz
Theta_e
352 352 346 341 344 342 341 338 333 328 329 337 333 343 343 343 346 346 347 345 342 339 337 336 337 337 338 338 339 340 340 341 341 341 342 341 341 341
350 350 351 342 344 343 341 339 337 333 329 338 336 341 343 342 343 346 345 343 340 338 336 335 335 335 336 336 337 337 337 338 338 338 339 339 339 339
355 350 351 353 341 340 342 340 339 338 332 335 339 344 347 346 343 343 344 343 340 337 336 334 333 334 335 335 335 334 333 334 333 333 334 334 335 336
357 354 350 347 350 348 341 350 344 344 335 339 342 340 345 347 347 347 342 340 340 337 336 334 333 333 332 332 331 330 329 327 327 328 328 329 330 331
358 356 353 349 348 344 344 342 340 340 341 335 335 340 340 343 344 346 345 346 341 339 332 332 331 331 330 328 326 324 321 320 320 322 324 325 326 327
360 359 356 352 349 348 345 345 343 339 341 337 335 335 338 343 340 335 337 341 338 338 338 333 334 333 331 327 325 324 320 318 318 319 319 320 322 323
361 360 359 354 344 345 346 347 351 342 335 336 336 335 335 335 337 337 335 335 339 340 338 337 336 336 336 328 331 331 325 322 319 318 317 317 317 318
362 360 360 348 345 335 335 336 345 348 346 335 335 336 344 340 339 336 334 332 329 340 337 335 337 335 335 335 331 326 324 322 320 319 318 317 317 317
364 362 358 356 349 352 335 332 333 333 337 349 343 344 344 348 347 341 340 336 334 337 339 333 334 332 334 331 326 324 323 320 319 319 318 317 315 314
365 364 365 363 357 353 352 344 343 344 344 342 345 346 351 348 347 343 343 341 340 338 342 329 331 326 329 329 326 323 321 319 318 317 316 314 312 310
365 364 364 363 344 331 352 350 349 347 333 327 329 329 331 328 335 340 335 336 332 330 336 329 325 324 325 325 326 323 317 315 313 313 314 312 310 308
365 367 336 354 328 324 349 350 347 348 348 341 337 334 331 333 326 340 337 331 328 323 331 325 321 321 318 322 321 320 320 315 312 311 312 311 309 319
354 356 358 328 318 318 328 348 347 350 342 346 341 342 342 340 337 338 340 330 324 322 327 327 320 319 317 315 317 317 317 316 317 316 309 308 308 311
356 355 356 320 314 314 323 328 321 327 352 344 341 338 337 337 337 334 335 332 331 330 330 332 320 318 315 312 310 314 315 316 316 316 317 314 309 309
356 345 326 313 312 315 319 319 321 343 342 339 337 337 336 336 336 333 334 334 333 331 327 328 321 321 314 310 310 311 311 314 315 315 316 318 319 319
328 332 325 323 323 325 323 326 342 343 340 338 336 337 336 331 328 328 325 325 323 322 328 326 324 321 312 312 311 310 312 310 313 315 317 318 317 317
324 328 328 328 329 329 333 335 339 341 338 339 337 333 330 329 326 327 325 324 321 319 317 321 324 323 317 317 310 312 312 311 312 315 316 313 314 315
328 331 331 330 327 329 333 332 338 336 338 336 334 331 328 326 325 326 325 323 319 317 316 315 313 312 312 318 319 312 312 311 313 315 316 310 309 311
337 334 330 329 328 329 332 335 336 334 337 333 332 330 326 326 324 325 323 320 317 316 314 313 311 310 307 306 312 314 310 311 312 311 311 309 307 309
337 331 332 332 334 332 333 335 334 332 332 331 329 327 326 326 324 322 320 317 315 313 311 311 311 311 309 307 307 310 305 314 311 309 308 309 309 308
337 337 336 335 335 334 335 335 334 331 330 328 327 326 326 324 322 319 317 307 308 311 310 310 313 308 312 311 310 311 313 305 309 310 309 304 304 305
337 338 340 338 336 336 334 334 332 329 328 327 326 325 324 321 319 317 315 312 310 309 309 311 313 313 312 310 309 310 310 312 310 308 308 306 303 299
338 338 336 336 338 337 334 330 329 327 327 326 323 322 321 318 318 316 313 312 310 310 310 309 310 311 310 310 308 309 311 310 308 307 306 309 308 307

GFSNE_sfc_thetae_033.txt.gz
Theta_e
360 358 349 342 344 343 341 339 335 329 332 341 335 349 342 343 346 345 346 342 342 341 339 338 338 339 339 340 340 340 341 341 341 342 342 341 341 342
352 360 358 344 345 344 341 340 338 334 330 337 339 343 346 341 345 345 345 345 344 341 339 337 337 337 337 337 337 338 338 338 338 339 339 339 339 339
362 361 358 361 342 341 342 341 339 338 332 335 339 350 350 348 346 348 345 348 341 337 338 337 336 335 335 336 336 335 334 334 333 333 333 334 335 335
360 361 356 349 358 357 343 356 346 349 337 350 346 343 348 354 353 355 345 340 343 338 339 337 335 334 333 333 333 331 330 330 329 327 328 329 330 331
365 363 360 358 357 347 348 344 342 344 344 338 337 340 342 345 348 352 352 351 344 338 335 334 332 332 331 330 327 326 323 322 321 322 323 324 326 327
367 366 364 360 356 357 353 352 350 344 343 339 337 336 338 348 343 338 339 343 341 339 340 335 338 334 331 328 327 327 321 319 318 319 320 321 322 323
368 367 367 361 349 351 350 352 352 345 336 336 337 337 335 338 341 340 339 338 342 339 340 340 343 339 337 330 334 331 326 323 321 320 319 318 318 319
367 368 367 353 349 339 338 339 350 353 349 341 339 339 351 346 342 338 338 334 331 345 340 337 344 341 338 337 332 333 328 324 322 320 318 318 318 318
369 368 365 359 354 357 337 335 335 335 341 354 349 348 352 354 355 346 346 343 337 340 342 334 338 334 335 329 329 328 324 321 320 319 319 317 316 315
368 368 368 364 363 360 358 350 349 349 348 345 351 353 355 356 350 350 349 347 345 340 347 330 335 331 330 331 330 325 322 319 318 318 316 314 312 310
366 369 368 368 349 336 359 357 352 350 336 332 332 332 335 332 339 345 338 338 334 334 342 333 331 326 326 326 329 324 323 317 315 314 315 314 311 309
364 368 340 360 336 328 357 357 352 350 349 343 338 334 335 334 329 346 341 333 333 329 340 329 327 323 318 324 325 324 324 315 313 311 312 312 310 316
358 360 364 331 325 320 333 356 353 355 346 348 343 344 344 344 341 340 345 338 334 331 330 331 325 322 319 318 321 323 321 320 320 319 310 308 308 312
358 359 361 324 320 317 325 332 323 336 351 345 344 343 341 340 341 342 345 344 340 336 333 335 324 320 318 316 314 318 319 321 321 320 321 315 308 308
360 348 335 316 316 317 324 321 322 347 347 342 341 341 342 343 346 345 344 343 341 336 331 334 327 328 320 315 311 312 312 315 319 319 319 320 321 322
332 344 330 328 329 334 327 328 342 345 344 343 340 344 342 341 335 335 330 330 326 326 335 337 333 329 317 314 313 312 313 311 317 318 319 319 320 320
345 340 337 337 333 331 333 333 337 342 342 339 338 339 339 334 334 334 330 328 324 323 323 327 332 330 322 324 312 314 314 314 315 318 318 315 316 318
342 338 335 336 333 331 333 333 337 337 342 340 336 337 336 330 331 331 327 327 324 323 321 321 322 318 316 322 320 314 314 313 314 317 318 313 311 315
343 338 336 335 334 334 335 334 334 340 338 339 336 334 334 333 328 327 327 326 323 322 320 320 317 313 309 307 315 315 314 312 312 313 314 311 310 312
341 336 334 334 334 334 335 336 337 339 337 335 333 334 334 331 327 327 328 325 322 319 317 316 314 313 310 310 310 313 307 315 313 312 310 312 312 309
339 336 337 335 335 338 338 335 341 339 337 333 334 334 331 329 327 327 325 312 315 318 314 313 315 313 317 316 307 310 317 305 313 314 313 307 306 306
338 338 337 336 336 337 339 338 338 332 333 333 333 332 330 328 326 325 321 318 316 315 313 314 319 316 313 310 309 313 312 314 310 309 309 309 305 299
332 337 334 335 337 337 337 336 336 334 334 334 331 330 330 326 326 322 319 317 315 312 311 311 312 313 311 311 310 310 313 315 311 310 311 310 311 307

GFSNE_sfc_thetae_036.txt.gz
Theta_e
359 359 354 351 351 349 348 344 340 332 335 342 338 344 347 345 345 342 343 339 339 338 337 337 337 338 339 340 340 341 340 341 341 341 340 340 340 340
358 355 354 348 347 350 347 346 344 339 332 341 342 343 343 346 347 347 346 343 340 340 338 337 337 338 338 338 338 338 338 338 337 337 337 337 337 337
357 356 353 353 351 349 347 347 345 343 336 339 347 350 347 344 342 346 345 345 341 338 337 338 337 336 336 336 336 336 335 334 333 332 332 332 333 333
357 354 354 351 352 353 353 346 344 347 342 340 343 346 347 347 348 348 344 340 343 340 337 335 335 334 333 333 334 333 331 329 328 327 327 328 329 330
361 357 355 353 350 346 348 347 346 347 348 340 340 345 347 349 346 347 348 346 346 339 333 333 333 332 331 330 328 327 324 323 323 322 322 324 326 327
363 361 359 355 350 351 347 345 347 345 342 342 340 339 344 345 344 340 340 343 341 341 337 334 333 332 331 327 327 326 322 320 319 319 320 321 322 323
361 363 362 359 350 348 348 349 344 343 342 337 335 338 338 340 338 340 336 336 340 342 338 335 335 334 332 330 332 332 327 324 321 319 318 317 317 318
360 362 363 353 350 341 340 341 346 342 338 335 335 335 338 341 345 339 337 335 331 342 337 337 341 339 338 339 336 334 330 326 322 320 318 318 317 317
361 361 361 361 352 354 338 337 337 338 340 342 341 343 346 346 346 342 341 340 336 340 338 332 339 334 339 329 328 329 329 325 321 319 318 317 316 315
362 362 361 361 359 357 352 345 344 344 342 344 348 346 350 350 349 347 344 343 343 342 341 329 336 333 332 328 326 326 324 325 321 318 316 314 312 310
361 363 362 361 349 335 355 349 345 345 336 331 334 337 335 336 345 344 341 337 333 334 339 334 333 330 327 328 324 323 320 320 317 316 316 314 311 309
358 361 340 355 338 327 353 353 347 345 346 343 338 331 332 333 333 344 341 334 332 331 338 332 330 326 318 324 325 319 318 316 313 312 312 312 310 310
354 356 359 331 327 321 331 355 350 351 343 345 341 339 339 339 338 339 343 339 333 332 333 334 326 323 320 317 321 323 321 318 316 314 309 308 308 310
356 356 356 327 320 319 324 336 328 335 351 345 339 337 336 337 340 339 339 341 341 335 327 331 324 320 317 315 314 317 317 318 316 316 317 314 308 308
361 350 323 317 317 320 322 327 325 348 351 345 340 338 338 340 340 340 338 340 337 334 334 331 325 323 319 315 313 312 310 313 317 316 314 315 314 315
340 347 345 329 326 332 332 329 348 352 350 346 343 342 342 340 338 338 335 333 328 327 332 331 329 324 317 317 314 311 313 309 314 316 315 313 314 313
345 355 353 351 351 342 339 342 348 350 347 346 342 339 337 336 334 334 330 327 323 322 323 328 329 325 321 317 312 311 311 314 316 315 312 310 312 313
339 350 351 347 343 343 339 342 346 343 345 343 339 336 334 332 330 329 329 326 322 321 322 323 322 320 318 318 319 311 314 314 314 313 312 309 306 309
347 347 349 346 342 342 340 341 340 342 343 338 336 335 334 332 327 327 325 323 322 323 323 323 321 316 312 307 314 316 314 311 310 311 313 309 306 306
345 346 345 346 342 339 338 339 338 338 339 337 335 334 332 329 326 325 323 322 321 323 320 320 317 314 310 308 310 313 309 311 311 312 309 309 309 311
336 341 346 345 343 340 339 339 337 337 337 336 335 333 331 328 326 325 324 317 319 320 316 316 316 318 317 314 309 307 310 307 314 311 310 307 303 302
328 331 332 335 340 340 339 337 336 334 334 335 334 331 329 328 326 324 323 317 319 318 317 317 314 314 314 310 307 308 311 314 308 309 311 311 303 297
337 335 335 336 336 335 337 337 336 334 333 333 332 331 330 327 325 324 323 320 316 315 315 313 312 315 311 310 309 309 310 310 311 309 310 311 311 310

GFSNE_sfc_thetae_039.txt.gz
Theta_e
347 348 342 339 340 335 332 331 327 321 324 330 329 335 336 339 340 335 332 338 337 335 334 335 335 337 337 338 339 339 340 339 340 339 338 337 335 336
351 347 345 341 338 337 335 333 331 326 321 331 330 334 338 339 341 333 332 337 337 336 334 333 334 336 337 337 337 337 337 337 336 335 334 333 333 333
350 347 345 342 337 337 336 334 331 329 323 326 332 336 335 335 337 338 340 338 334 334 334 334 334 335 336 336 336 336 335 334 332 332 330 329 330 331
351 346 346 347 340 339 342 332 332 334 328 324 332 335 334 333 332 334 338 340 337 337 335 334 333 333 332 332 333 333 332 330 329 328 327 327 328 329
354 349 346 345 341 340 339 338 336 334 336 330 330 336 337 337 336 338 336 334 337 340 333 333 332 331 330 328 327 326 324 323 323 323 322 323 325 326
355 354 351 348 345 342 339 337 336 334 331 331 328 328 331 338 335 333 333 337 335 339 336 334 332 332 331 327 326 325 321 319 319 318 318 319 321 322
353 357 355 352 346 343 343 339 336 335 332 329 328 330 329 332 335 335 332 333 335 335 333 328 327 330 331 329 330 331 326 323 320 317 316 316 316 317
355 353 357 351 348 339 338 339 341 335 333 334 330 328 331 332 333 335 334 327 326 336 333 329 330 329 330 328 331 330 326 326 322 319 318 316 316 316
357 356 353 357 349 353 338 337 337 336 335 334 333 332 331 334 335 334 332 328 327 333 330 326 330 330 332 332 330 327 324 326 321 320 318 316 315 313
358 358 356 355 355 354 353 345 344 342 340 338 335 335 337 340 340 339 335 334 334 334 334 326 330 328 328 323 326 326 324 321 320 318 316 313 311 309
357 358 358 357 346 334 353 349 345 344 336 330 333 334 332 334 341 340 334 332 329 331 335 329 328 327 323 321 322 324 320 318 317 317 315 313 309 308
355 356 339 350 335 328 350 352 346 345 344 342 336 330 333 336 335 341 336 330 328 327 333 331 327 324 315 317 318 319 316 315 314 313 312 312 309 306
354 353 354 330 324 322 326 354 350 349 343 344 342 341 338 336 336 339 338 337 331 328 333 333 326 319 312 311 316 315 314 312 312 310 308 307 307 308
356 356 353 326 320 320 322 333 327 331 350 344 343 339 336 334 336 337 340 338 337 334 330 329 321 317 312 310 310 310 310 310 310 308 309 310 308 306
360 351 335 322 317 320 321 324 324 345 351 347 343 342 338 338 338 336 338 337 335 332 330 327 320 318 313 310 309 307 305 305 308 309 307 308 306 307
339 347 342 336 333 334 332 326 338 349 351 350 349 346 340 337 335 337 334 334 329 325 329 328 324 318 313 311 310 306 306 303 304 305 308 306 307 305
338 348 352 351 349 348 341 342 338 342 347 351 350 346 338 336 335 336 335 333 329 324 323 325 323 318 314 311 307 307 304 303 305 309 304 302 304 307
329 341 346 349 350 350 350 347 340 339 345 349 347 342 338 336 334 334 333 330 327 324 322 323 320 316 314 313 314 304 304 305 307 307 304 302 301 303
334 342 342 345 349 351 351 350 343 343 345 347 346 340 338 336 331 331 329 329 325 322 321 322 320 314 308 305 308 314 307 307 304 302 304 302 300 301
328 333 337 341 344 347 348 347 346 344 344 346 344 339 337 334 330 329 329 326 324 322 320 321 318 316 312 309 305 306 307 305 302 301 304 302 303 308
324 323 327 329 330 332 336 341 343 343 343 344 343 339 336 332 328 328 326 319 319 321 318 317 319 318 312 307 302 300 304 306 306 304 303 300 298 297
322 327 330 332 332 331 332 334 337 338 340 340 341 339 332 330 327 325 323 321 321 320 319 314 312 313 306 303 301 300 301 307 306 310 309 306 298 292
326 328 327 327 329 331 332 333 334 335 336 337 337 330 329 327 326 325 324 323 321 317 311 307 307 306 305 304 304 301 301 304 303 301 302 309 309 308

GFSNE_sfc_thetae_042.txt.gz
Theta_e
343 345 338 335 336 335 328 329 324 320 320 326 326 332 334 336 334 336 330 337 337 335 333 333 335 336 338 338 338 338 339 339 339 338 337 335 333 333
347 342 342 340 336 335 334 328 327 323 319 325 330 330 333 336 339 335 330 336 337 335 333 332 333 334 335 336 337 337 337 337 337 335 334 333 331 330
349 346 343 341 339 334 332 331 327 325 321 321 328 329 331 332 334 332 331 329 330 334 333 332 331 332 334 334 334 335 335 334 334 333 332 329 329 330
350 347 347 346 340 336 333 333 329 328 323 320 324 332 331 332 332 334 333 335 333 334 333 331 330 330 330 331 331 331 330 330 330 329 329 327 327 329
352 350 349 346 344 340 334 335 334 330 329 324 323 330 331 331 330 331 331 333 336 338 332 331 330 330 329 328 326 324 323 323 323 323 324 323 325 326
353 352 350 347 346 342 336 335 334 333 329 329 326 329 331 333 331 329 330 333 331 337 338 334 333 333 331 326 326 324 320 318 318 318 318 318 320 322
352 354 353 350 345 343 343 339 333 333 330 327 326 325 325 330 331 330 331 333 335 333 332 330 329 329 331 329 331 330 324 320 318 317 315 315 315 317
351 352 353 349 345 338 337 338 339 335 333 332 332 329 330 327 332 333 332 326 326 333 332 333 328 327 329 329 330 328 325 322 320 318 316 315 315 315
353 353 353 354 347 352 337 334 335 334 336 335 331 332 330 331 331 330 332 329 330 331 332 331 330 329 331 331 327 326 324 322 320 318 317 316 314 312
354 354 354 353 352 352 353 347 343 343 339 339 338 336 335 335 333 334 334 334 331 331 331 328 328 328 329 330 327 327 323 321 319 317 316 314 310 309
356 355 356 355 344 332 351 350 349 347 340 330 332 331 326 326 332 332 331 330 328 330 332 329 328 329 326 325 324 325 321 319 317 316 316 313 309 306
356 356 338 349 333 327 345 350 349 350 349 348 339 333 328 329 329 338 336 331 331 328 333 330 327 327 321 319 321 322 321 315 314 313 313 311 308 305
354 354 356 330 324 321 325 353 350 351 349 348 347 344 341 339 336 340 341 337 333 331 333 335 328 324 317 314 317 317 317 312 312 311 309 307 306 306
356 357 355 327 319 319 323 331 327 330 352 353 348 345 344 340 339 341 343 341 341 337 335 337 327 323 317 311 312 312 313 311 310 309 308 307 306 306
359 350 332 323 318 320 319 323 322 343 349 350 350 348 346 347 343 341 342 342 339 337 336 332 328 322 325 319 310 307 307 307 307 306 306 306 306 305
334 345 340 332 325 334 333 329 331 341 345 348 350 353 353 347 341 339 337 337 335 332 332 332 328 322 315 313 312 308 306 303 304 304 305 303 305 304
336 343 344 347 349 350 351 347 346 338 338 344 348 350 351 348 340 339 337 335 334 330 324 326 325 323 321 315 311 310 305 303 301 304 302 302 302 304
330 335 338 341 343 346 348 350 352 344 344 343 345 347 347 348 340 337 336 334 331 330 327 323 319 316 314 314 316 307 303 303 302 305 300 300 300 301
331 332 336 338 341 344 346 348 349 352 351 345 346 346 346 346 339 336 334 332 330 327 326 323 319 317 310 306 309 310 305 304 304 302 302 300 300 300
323 322 322 324 325 327 329 329 332 335 337 340 343 344 345 344 342 336 333 331 329 327 324 323 320 317 313 310 306 309 306 304 302 301 302 300 301 307
320 319 320 322 329 331 331 331 331 331 331 332 333 336 339 340 339 339 336 320 322 324 320 320 321 319 312 309 304 301 306 305 306 303 301 300 297 295
318 320 324 328 328 331 331 332 332 331 331 332 334 335 334 331 327 326 326 325 325 324 322 322 319 313 307 306 302 300 301 304 306 308 309 307 299 295
322 323 324 325 326 326 326 328 329 331 331 329 328 329 330 327 327 325 325 325 324 319 315 312 314 313 305 305 304 300 300 302 302 301 303 309 308 308

GFSNE_sfc_thetae_045.txt.gz
Theta_e
342 341 335 333 335 331 325 326 322 317 319 325 326 330 333 335 337 335 335 335 338 336 334 334 335 337 339 340 339 339 339 339 339 339 337 334 331 330
343 340 340 338 334 333 332 327 324 321 318 323 326 327 331 334 337 336 335 337 337 336 334 332 333 335 336 336 337 337 337 338 337 337 334 333 331 328
347 344 341 339 338 334 331 330 326 323 319 321 325 327 328 329 333 337 334 331 330 334 334 332 331 332 333 334 334 334 335 335 335 335 334 331 328 329
348 347 346 345 338 335 332 330 329 326 323 320 321 327 327 329 331 333 334 333 329 332 333 331 330 330 329 329 329 330 331 331 331 331 331 330 327 328
350 349 349 345 343 340 335 332 330 329 325 322 321 325 329 329 328 330 330 329 331 335 331 330 330 330 328 326 326 325 324 324 324 325 326 326 326 327
352 351 351 348 347 346 340 337 333 330 328 326 325 324 328 330 328 326 326 328 330 334 337 334 333 332 330 326 326 326 321 319 318 319 320 320 322 323
350 351 352 351 346 346 347 343 335 333 331 329 328 324 325 327 327 327 328 330 329 331 331 331 332 331 331 331 333 331 324 321 318 317 316 315 316 318
349 350 351 348 346 339 338 340 342 339 336 333 333 330 329 329 330 331 329 323 323 331 332 331 331 331 331 330 331 329 325 322 320 318 316 314 314 315
350 350 350 352 346 351 339 336 336 334 339 343 335 336 333 333 331 329 331 330 329 329 333 330 330 331 334 331 327 326 324 322 320 318 317 315 314 313
352 352 351 351 351 349 350 348 343 344 341 339 344 345 342 339 333 333 332 332 332 328 332 328 329 331 334 331 327 326 323 321 321 318 316 314 311 309
353 353 353 352 342 332 348 348 349 350 339 331 332 333 331 328 333 332 328 327 327 330 331 332 329 328 326 328 331 328 323 319 319 317 316 314 309 307
353 354 337 347 333 327 344 348 347 349 351 351 345 335 331 335 325 334 338 330 329 326 332 330 329 326 323 324 327 327 326 317 315 315 315 313 307 306
351 352 354 331 324 322 325 353 350 351 349 350 352 352 350 346 344 336 337 338 334 332 334 334 331 326 325 317 323 324 324 321 319 314 310 309 306 307
352 354 353 328 320 319 322 330 326 329 351 352 352 352 352 349 347 345 340 339 341 339 341 337 331 329 324 318 319 317 321 320 318 314 314 308 306 306
357 348 331 321 317 319 318 320 320 338 343 346 348 350 352 355 353 349 343 341 341 341 340 336 336 332 330 324 316 314 317 314 312 312 309 308 307 304
335 344 337 330 326 333 334 331 331 336 341 343 346 350 352 352 353 351 344 341 338 339 341 339 338 333 329 329 324 313 312 311 311 309 307 305 304 305
338 342 344 345 346 347 348 347 347 341 337 339 341 344 346 348 349 351 348 343 339 337 337 335 336 334 334 326 318 313 308 305 312 308 304 303 303 303
335 339 338 338 339 339 338 341 343 342 346 345 344 344 343 344 344 345 346 343 338 338 336 331 329 319 317 317 322 314 311 306 306 307 303 302 301 302
336 334 334 330 328 325 325 326 327 329 331 331 331 332 334 336 336 339 342 338 337 337 337 330 323 325 316 311 312 314 310 305 306 304 301 301 301 301
325 322 320 320 320 326 327 327 328 329 330 330 331 331 332 331 331 333 334 335 335 336 331 323 323 322 319 310 308 311 307 307 306 304 301 299 302 307
319 318 318 323 327 328 328 329 329 328 329 329 330 329 331 333 332 331 327 311 320 323 319 319 320 318 314 313 309 308 307 305 308 306 301 299 298 296
317 318 320 321 322 323 326 328 328 328 331 331 330 328 330 328 326 325 323 322 323 323 322 319 316 316 315 313 306 307 305 305 306 308 309 306 300 295
319 321 321 324 327 327 328 327 328 329 330 330 328 327 328 323 323 324 324 324 322 318 318 316 315 313 308 310 303 301 304 304 302 302 303 308 309 309

GFSNE_sfc_thetae_048.txt.gz
Theta_e
349 348 342 340 339 337 334 335 333 328 329 336 335 339 340 343 346 346 345 340 338 337 335 334 336 338 339 340 340 340 340 339 340 339 338 334 331 329
349 347 347 345 341 340 338 335 332 333 329 332 336 338 339 338 342 345 343 340 337 336 334 333 334 335 336 337 337 337 337 337 338 337 336 334 332 329
352 349 347 347 346 342 339 338 334 331 330 334 331 338 339 339 341 343 343 342 341 334 334 333 332 332 334 334 334 334 335 335 336 336 336 334 331 329
351 351 351 349 347 346 342 340 337 335 333 333 335 335 337 340 341 340 340 339 340 336 332 332 331 330 330 330 330 330 330 331 332 332 334 333 330 329
353 352 352 352 351 348 346 342 339 337 334 331 334 333 336 338 338 338 339 341 340 337 331 330 330 330 328 326 325 324 323 324 325 326 328 328 328 328
355 354 354 353 352 352 349 348 347 341 337 334 334 333 334 339 337 336 335 336 337 338 337 334 333 332 330 326 326 324 320 319 320 320 321 322 323 325
353 354 355 353 347 349 352 351 349 345 344 340 338 338 334 335 334 338 334 338 339 339 338 338 339 338 339 331 334 331 324 321 319 318 318 317 317 319
351 353 354 349 347 339 338 340 348 347 345 342 341 340 341 340 339 336 335 334 332 337 336 336 339 338 339 340 335 331 326 323 321 318 317 316 315 316
353 353 353 353 348 354 341 336 337 335 340 350 345 344 343 346 344 339 336 337 336 341 338 334 340 336 340 337 330 328 325 322 320 320 318 316 314 313
354 354 354 354 354 353 353 353 351 350 346 344 348 351 353 354 351 345 342 340 340 341 341 332 339 336 339 340 328 327 324 321 320 319 317 315 312 311
355 356 355 354 342 331 352 352 352 353 341 332 333 333 331 329 336 346 337 330 331 336 339 334 338 336 340 338 338 326 323 319 318 318 317 315 311 309
354 355 337 347 332 326 349 352 350 353 355 356 354 340 334 339 329 337 342 338 335 333 340 331 333 332 328 335 336 332 327 318 317 317 317 315 310 315
351 352 355 330 324 321 324 353 351 352 350 351 353 354 355 354 349 346 342 341 340 339 345 339 339 337 333 327 327 331 329 326 327 321 312 311 307 312
352 355 355 327 320 319 322 327 324 328 348 350 351 351 352 354 357 356 353 348 348 348 352 341 337 335 331 330 324 327 331 332 329 326 323 313 307 307
355 347 332 322 318 319 318 319 319 334 339 342 344 348 351 354 355 355 357 354 349 345 344 345 339 338 334 330 327 325 324 322 327 324 321 314 313 312
333 343 337 332 329 335 336 332 333 337 340 342 345 350 352 350 349 351 351 351 348 347 347 344 342 339 336 333 331 325 327 321 323 322 319 318 314 314
340 346 345 346 347 348 349 349 350 347 341 342 342 342 343 343 343 347 345 344 341 342 340 345 344 342 339 339 330 327 324 317 321 315 314 312 310 311
339 345 343 343 342 341 340 339 339 334 336 334 332 333 332 333 333 334 335 337 333 334 338 341 338 332 334 320 319 324 317 313 315 314 316 311 307 308
343 339 337 335 331 330 333 333 333 334 336 333 331 331 331 332 331 332 333 333 333 335 336 339 338 335 323 307 312 317 311 310 311 311 310 308 309 307
329 330 328 328 330 331 332 332 332 332 332 333 333 334 331 329 331 332 332 329 326 328 326 323 324 320 315 314 311 310 308 310 312 307 304 305 306 309
325 326 329 330 331 332 332 332 332 330 329 331 332 331 330 329 331 330 329 316 318 321 319 317 315 315 316 318 311 308 309 307 310 308 304 305 305 305
327 328 329 330 329 328 329 330 331 330 330 331 331 333 333 332 329 329 330 328 324 321 316 317 320 323 320 318 312 306 305 307 308 309 310 309 308 304
326 327 327 328 328 330 330 331 331 331 332 331 332 332 332 329 331 329 327 328 326 320 318 316 316 316 317 313 310 307 305 305 306 307 309 308 309 309

GFSNE_sfc_thetae_051.txt.gz
Theta_e
360 360 354 351 349 346 344 343 339 333 334 342 343 352 350 350 352 353 354 346 340 338 336 335 336 338 340 341 342 342 342 342 340 340 340 338 334 330
358 360 360 356 353 351 348 346 344 340 335 343 343 347 350 347 350 351 352 346 341 337 336 334 334 336 337 338 338 338 339 339 338 339 339 338 335 331
361 360 361 362 355 353 351 349 346 344 339 341 345 348 351 352 351 351 351 352 349 337 335 334 333 333 334 335 335 336 336 336 336 337 338 337 335 332
361 361 359 358 360 360 354 355 351 351 344 347 348 346 351 355 354 353 350 346 348 341 335 333 332 331 331 331 331 331 331 331 332 333 335 336 335 333
362 362 361 361 360 358 359 356 355 353 350 344 344 347 347 347 349 353 351 353 349 343 334 331 331 330 329 327 326 325 324 324 325 327 329 331 332 332
362 363 362 362 361 362 360 360 359 357 356 351 349 348 349 354 348 344 343 347 346 346 342 338 337 333 330 327 326 325 321 319 320 321 323 324 326 327
361 362 363 360 350 353 359 364 362 356 353 350 348 347 347 347 348 348 346 347 351 350 347 347 347 345 342 331 334 330 325 321 319 319 319 319 320 321
359 361 363 353 352 340 339 341 353 361 356 353 351 350 358 355 354 352 350 347 346 356 350 345 347 345 346 346 338 331 326 323 321 319 318 317 317 318
361 361 359 357 354 361 345 337 337 335 340 359 359 359 360 363 363 357 358 354 351 353 353 347 350 347 348 348 332 330 327 324 321 320 319 318 316 315
363 363 363 363 362 360 361 360 361 363 358 353 356 360 364 366 366 363 362 356 353 353 355 343 350 350 353 352 334 329 327 325 322 319 318 316 313 312
362 363 364 363 347 333 359 359 362 362 347 335 337 336 333 330 338 353 347 345 341 345 353 348 349 347 350 351 350 329 326 324 321 320 318 315 311 310
361 364 338 351 333 327 356 358 358 358 360 362 364 347 336 348 331 340 346 341 345 344 357 349 348 348 340 347 349 349 344 322 319 318 317 315 310 319
353 354 357 329 325 322 324 360 358 358 356 362 360 358 359 361 360 358 349 345 345 345 350 350 345 344 342 338 341 341 343 341 326 320 315 311 311 320
357 358 360 328 320 319 324 329 324 329 353 352 352 352 353 354 357 359 363 361 355 351 356 353 347 343 340 338 334 335 336 336 329 325 323 318 311 312
359 349 331 322 317 323 319 320 319 338 342 343 343 346 350 355 361 359 361 364 364 365 361 361 352 353 346 340 337 339 328 330 329 328 328 323 317 317
336 348 344 335 331 341 343 332 335 337 339 341 345 349 353 353 350 348 345 345 343 342 352 357 358 348 343 341 340 339 339 325 329 329 327 322 317 316
346 353 353 353 353 354 354 352 352 347 343 347 348 346 344 342 341 343 341 340 337 338 339 341 347 352 346 340 336 337 332 323 326 323 319 314 314 315
346 352 353 349 349 350 349 347 344 339 347 341 338 338 336 336 336 337 337 337 335 335 336 338 340 339 335 321 320 317 319 320 319 321 318 316 312 315
350 349 350 348 346 339 338 339 342 343 343 339 338 337 335 334 332 332 333 336 334 331 332 333 331 329 324 312 317 311 319 317 317 316 318 319 312 310
346 346 339 334 334 337 341 340 341 341 338 337 336 335 337 333 331 333 335 333 330 330 332 328 322 325 325 322 315 311 307 316 316 312 307 307 308 310
331 332 334 336 340 340 338 338 337 336 334 335 333 333 333 333 332 335 334 320 321 330 327 322 322 319 331 329 316 309 311 307 313 314 312 312 307 307
333 333 334 335 336 338 335 338 337 334 334 333 334 334 335 335 332 333 332 332 329 326 323 325 331 332 332 330 318 311 308 309 309 309 309 310 313 309
329 329 328 325 323 325 328 334 334 334 334 334 334 334 336 334 335 334 332 331 331 329 325 326 328 327 320 321 314 310 308 307 308 308 307 308 310 311

GFSNE_sfc_thetae_054.txt.gz
Theta_e
361 361 357 351 350 348 347 345 340 335 337 346 342 355 352 351 354 354 355 346 342 340 337 337 337 338 340 342 343 344 345 346 345 343 342 342 340 336
359 362 362 354 353 352 349 348 346 342 337 341 344 349 352 351 351 355 355 349 342 339 337 335 335 336 337 338 339 340 341 341 341 340 340 340 340 339
363 361 364 366 357 352 352 350 348 347 341 342 344 351 358 358 356 357 355 356 352 339 338 336 334 334 334 335 335 336 337 337 338 338 338 339 339 337
363 363 362 359 365 364 355 360 355 357 346 353 352 346 357 362 359 359 355 353 351 343 337 335 334 333 332 331 331 331 332 332 333 334 335 337 337 336
362 363 363 363 362 359 359 356 355 356 357 352 350 351 351 354 357 363 362 360 354 347 337 334 333 332 330 329 327 326 325 325 327 327 329 332 334 335
363 363 364 365 365 365 364 364 364 360 359 354 350 349 349 356 353 350 351 353 352 353 348 341 340 336 332 328 327 327 323 320 321 322 323 325 328 330
362 364 365 362 351 356 363 370 372 362 354 350 348 348 348 348 352 352 352 354 358 359 356 357 357 355 351 332 337 332 327 323 320 320 320 320 322 324
361 363 365 356 354 342 340 341 351 365 367 356 352 351 365 361 357 355 354 353 352 362 360 357 360 357 358 357 343 334 328 325 322 320 319 318 319 320
365 362 360 357 356 364 345 339 340 337 339 359 361 362 364 368 371 369 364 362 361 365 365 357 361 358 362 360 338 331 327 324 323 322 320 318 318 318
364 364 366 365 363 359 361 361 362 364 361 357 360 362 363 366 369 367 367 363 363 363 366 351 359 357 360 361 341 333 327 324 322 321 320 317 316 315
363 366 367 367 349 335 361 362 364 362 346 333 337 337 335 333 341 358 355 354 354 357 363 357 359 358 361 360 361 337 327 322 320 320 320 317 314 311
364 368 340 353 335 328 361 360 360 358 358 361 362 354 337 347 332 352 358 351 352 350 363 358 357 355 346 355 354 355 353 320 318 316 319 316 313 326
352 352 355 329 327 324 325 362 358 355 354 363 365 365 367 366 366 369 365 356 352 351 358 356 353 354 350 347 351 353 353 353 333 332 312 312 310 321
355 353 357 325 318 319 326 331 325 330 357 358 359 361 360 361 362 362 367 368 365 355 362 367 356 352 352 346 343 349 351 345 345 334 328 315 311 316
359 349 328 322 316 323 318 322 320 354 356 356 354 356 358 357 363 363 364 371 368 365 354 363 351 351 348 348 346 347 342 342 340 337 329 320 316 318
341 352 347 337 330 338 348 342 356 360 358 354 347 348 356 357 357 354 346 345 343 343 357 358 357 352 343 345 346 342 345 337 334 332 327 322 320 316
351 359 358 357 357 359 361 361 362 359 347 346 349 352 355 353 345 345 344 343 340 340 341 343 351 349 330 322 323 328 328 329 333 327 318 315 314 314
352 357 355 356 356 356 357 357 356 348 353 352 355 350 345 343 342 342 342 340 338 340 338 340 338 336 336 327 318 320 324 321 322 320 318 313 312 314
360 357 358 360 357 355 354 351 352 349 355 350 347 345 342 341 340 339 338 340 339 338 339 337 333 333 329 326 326 311 318 320 320 319 319 320 313 313
355 355 353 349 345 345 345 346 346 348 347 345 343 342 342 341 337 335 339 339 338 337 337 338 334 333 329 325 320 316 306 321 317 311 309 310 311 314
343 342 344 343 343 342 345 348 347 346 341 341 341 340 339 338 336 334 338 322 324 336 334 334 335 326 335 332 329 316 314 306 314 314 313 311 308 309
341 340 338 340 339 340 342 343 342 339 340 338 338 338 337 337 336 335 335 334 335 335 334 335 337 334 333 331 329 318 313 312 309 308 309 312 314 308
341 337 337 332 337 338 342 344 341 338 336 335 335 335 335 335 337 337 336 332 332 334 333 331 332 332 330 327 320 319 311 311 310 310 309 309 310 311

GFSNE_sfc_thetae_057.txt.gz
Theta_e
364 363 356 349 349 347 347 345 341 336 339 350 341 356 350 350 353 356 359 348 342 339 337 338 338 339 341 342 344 344 346 347 347 347 346 344 344 343
357 368 365 354 354 351 349 348 346 342 337 343 344 353 354 350 353 355 354 349 343 340 338 335 336 337 337 338 339 340 341 342 343 343 342 341 342 343
366 363 367 371 357 353 351 349 347 346 340 343 345 355 367 366 362 362 358 361 354 340 338 337 335 335 336 335 335 336 337 337 338 339 340 340 339 340
364 367 361 358 369 369 358 368 357 361 347 355 353 351 361 365 366 367 357 356 357 348 337 336 334 333 333 333 332 331 331 332 333 334 336 337 338 338
364 366 365 367 369 361 366 357 353 357 357 352 352 355 356 356 360 366 366 365 359 350 341 336 334 333 332 330 329 327 325 325 326 327 330 332 334 336
366 367 366 367 369 371 366 370 366 362 357 353 353 353 355 363 357 353 354 358 358 357 352 346 344 337 334 329 328 328 323 321 321 322 323 325 328 331
366 367 367 364 352 359 362 368 368 363 356 355 352 351 350 351 355 355 354 358 364 361 359 362 362 364 361 334 337 333 328 323 321 320 320 320 322 324
366 368 369 356 355 342 341 342 351 365 367 357 353 351 360 360 359 357 358 355 354 363 366 366 369 366 367 367 347 334 328 326 323 321 320 319 320 321
367 368 364 357 358 368 347 341 342 338 341 360 359 360 361 365 368 366 360 361 362 366 364 360 364 362 367 363 343 337 328 325 323 321 320 319 318 319
367 368 369 368 368 365 368 366 366 367 365 358 360 363 368 370 370 367 366 365 367 366 367 356 364 362 368 368 343 337 332 324 323 321 318 317 316 316
365 366 368 370 351 336 364 364 366 367 348 332 336 338 336 333 341 353 354 357 356 357 365 362 362 360 359 358 360 339 332 325 320 319 318 316 313 314
365 367 340 353 337 329 363 364 362 365 365 364 365 356 339 350 331 352 362 355 356 355 365 358 357 354 348 357 358 361 358 334 319 316 316 315 311 318
354 353 357 331 327 325 326 364 360 361 357 361 360 363 366 368 368 365 370 367 359 355 360 361 353 354 350 347 350 354 354 353 356 349 311 310 309 318
355 350 353 325 320 321 327 330 324 330 355 356 357 359 361 364 365 368 371 371 372 368 370 370 354 348 346 344 343 349 350 350 354 352 350 320 309 311
358 341 327 320 316 320 318 323 322 354 356 356 358 360 362 365 361 358 370 373 373 373 364 365 351 351 345 342 340 339 335 336 341 339 342 321 315 314
342 353 347 337 328 340 349 338 355 360 359 359 362 362 361 356 359 361 358 348 344 345 362 363 360 353 340 338 334 330 329 325 329 332 321 318 318 319
351 358 356 356 357 359 362 364 364 364 362 362 359 354 356 358 359 356 347 345 341 341 343 345 359 348 337 334 330 327 324 322 321 319 315 312 314 315
350 356 357 358 359 359 360 362 363 357 364 358 354 355 356 354 350 347 345 342 340 342 342 342 341 338 334 321 324 323 322 321 319 317 315 311 311 314
359 359 358 360 359 361 360 359 358 359 359 357 357 355 352 349 342 342 342 341 341 342 341 341 339 335 331 328 326 312 318 322 319 314 318 318 313 313
361 359 361 361 363 362 360 359 356 355 355 354 352 350 348 344 342 341 340 340 341 341 338 340 340 337 331 330 330 323 305 322 319 315 315 315 314 314
358 360 360 360 358 353 351 349 351 349 347 352 348 346 344 342 341 340 339 325 327 337 335 337 339 328 338 340 330 325 320 306 316 320 315 312 310 312
352 354 355 352 350 348 349 351 347 343 345 343 343 343 341 339 339 339 338 336 337 337 336 338 341 338 335 331 328 325 323 316 311 309 310 312 313 309
352 350 347 346 343 344 346 347 342 345 342 342 337 339 337 335 339 339 340 337 334 334 335 334 335 336 333 330 322 326 318 315 314 312 312 309 310 313

GFSNE_sfc_thetae_060.txt.gz
Theta_e
363 366 363 357 353 351 352 351 347 338 339 350 348 355 352 355 357 351 351 346 340 339 337 337 338 340 341 341 343 343 344 345 346 347 347 348 348 347
362 362 363 358 357 358 354 355 353 346 340 347 351 355 354 349 357 357 356 351 343 339 337 335 335 337 338 338 338 339 340 341 342 343 344 345 344 343
366 365 362 363 362 361 360 355 352 353 345 347 354 354 359 359 357 358 360 357 355 340 338 336 335 335 336 336 336 336 336 337 338 339 341 342 342 341
364 363 364 363 366 365 361 360 360 362 354 348 352 350 351 355 360 361 361 356 353 350 339 335 334 334 333 333 333 333 332 332 333 334 336 338 339 339
364 363 362 364 363 364 364 359 356 357 355 352 349 357 358 358 355 359 361 360 359 352 343 338 335 333 332 330 329 328 326 325 326 327 330 332 334 336
364 362 364 364 363 365 362 362 362 360 358 356 352 351 353 357 360 354 352 356 352 359 354 346 344 339 334 330 329 328 323 321 321 321 323 326 328 331
362 364 364 362 353 357 362 363 363 361 358 356 353 354 351 351 351 353 353 356 356 359 357 361 363 363 361 342 338 335 328 325 321 320 319 320 322 325
361 362 366 353 351 343 340 342 352 360 356 357 356 353 352 354 356 353 353 351 347 360 363 358 363 362 363 363 350 337 331 326 323 321 318 318 320 322
362 362 361 359 353 362 346 339 339 338 341 354 352 353 352 354 356 357 356 355 354 358 359 356 362 360 363 363 338 336 333 326 323 322 320 318 317 318
360 362 362 361 360 362 362 361 359 359 356 351 351 355 357 360 362 361 360 359 356 359 363 353 359 358 363 359 341 339 332 327 325 321 319 316 313 313
357 361 364 362 348 338 355 356 358 361 348 338 340 340 339 336 343 355 351 346 348 355 362 356 357 356 354 352 356 339 330 327 324 321 319 316 312 310
357 359 338 349 336 328 354 358 355 356 359 360 361 351 333 342 329 339 349 351 355 352 362 353 353 350 344 353 347 349 349 329 327 321 319 315 310 317
353 354 357 332 325 323 326 357 354 356 355 360 359 357 357 363 365 367 367 362 358 355 360 359 351 351 346 340 344 345 340 338 336 334 324 316 308 317
355 356 354 329 324 324 326 330 326 327 354 353 352 353 356 358 365 369 369 364 364 363 364 366 356 348 341 337 335 337 334 331 330 327 331 319 309 308
358 344 325 320 315 317 318 323 322 344 349 350 352 355 359 366 367 363 360 362 365 364 366 361 352 347 341 336 332 330 325 326 324 322 321 318 315 313
340 350 341 340 329 339 342 328 345 354 356 357 357 360 366 363 359 357 358 360 348 347 353 355 350 346 339 336 332 325 324 320 320 319 316 315 315 317
347 355 355 354 352 355 359 363 357 358 357 359 359 362 360 357 355 359 359 350 344 342 342 349 345 334 327 329 327 324 321 320 318 316 314 312 313 313
346 354 353 354 354 353 354 357 362 357 363 363 363 360 356 353 353 355 349 344 342 341 341 345 343 338 325 319 318 322 322 321 319 318 316 312 311 312
354 352 354 357 357 359 360 363 364 366 362 358 355 354 355 355 342 345 345 343 340 340 344 342 341 336 330 325 316 310 321 322 319 315 317 314 312 312
356 359 359 360 365 365 364 363 363 360 358 357 356 355 353 350 347 345 344 341 340 341 338 337 340 337 331 327 328 316 304 322 319 316 313 313 312 313
356 357 362 367 366 366 364 362 359 355 354 353 352 350 346 343 344 343 341 324 327 337 336 336 335 331 338 337 329 324 316 306 311 320 316 313 311 311
364 363 362 359 358 355 354 354 351 342 343 342 341 341 339 341 339 339 339 338 337 336 335 337 340 337 334 329 326 323 318 315 310 310 311 312 313 309
352 347 344 343 342 345 347 347 346 345 346 338 338 337 341 337 339 339 337 338 338 335 334 332 336 337 333 331 324 324 319 316 314 313 313 310 310 311

GFSNE_sfc_thetae_063.txt.gz
Theta_e
350 350 350 347 345 343 337 336 333 326 328 338 339 343 342 344 346 347 342 343 340 339 336 336 337 339 341 342 342 343 344 344 345 346 346 347 349 352
349 350 348 347 345 350 342 340 339 333 328 336 337 341 347 347 349 347 344 347 344 339 337 335 335 337 338 339 339 339 340 341 341 342 342 343 345 347
350 351 350 350 346 349 353 349 340 339 333 335 342 344 343 344 346 348 348 347 347 341 338 336 335 335 336 336 336 337 337 337 338 339 340 341 342 343
351 351 352 355 350 349 351 348 348 348 343 335 340 340 341 345 345 346 351 356 351 348 341 338 335 333 333 332 332 332 332 332 333 334 336 338 339 339
353 353 350 352 351 354 351 349 347 347 347 343 341 346 349 349 348 347 349 353 356 351 341 339 337 335 332 330 328 326 324 324 325 327 329 331 334 337
356 354 355 353 352 352 353 351 351 350 348 346 345 344 345 349 348 347 344 345 348 356 351 347 344 344 340 332 329 329 323 320 320 321 322 323 327 331
352 354 355 354 351 352 356 354 353 351 350 348 346 346 345 344 343 347 345 346 347 349 349 351 357 358 359 349 347 339 330 326 322 319 318 318 319 323
354 353 355 351 349 343 341 344 353 353 350 348 346 345 344 344 346 345 345 343 341 351 353 354 356 358 360 359 343 336 331 328 325 322 320 318 317 318
355 354 354 357 349 354 343 338 338 336 340 349 345 346 345 349 347 346 347 348 348 353 350 349 356 353 357 359 341 334 330 326 325 323 321 318 317 315
356 355 354 354 351 350 351 352 350 348 345 344 344 349 351 353 351 352 351 351 354 354 349 348 354 351 355 354 339 333 326 324 323 322 321 319 314 311
352 353 355 355 344 336 348 350 352 354 347 335 336 336 335 334 340 346 348 347 345 344 353 351 349 349 348 345 343 333 326 321 320 319 319 316 313 310
349 350 337 349 337 332 347 349 345 346 347 348 348 339 333 339 332 340 349 343 342 349 353 348 346 344 339 343 340 336 334 322 318 316 317 313 309 317
346 348 350 330 323 321 325 349 349 351 346 350 351 352 351 349 352 351 343 347 349 350 353 351 345 344 340 335 334 331 328 325 322 321 316 312 309 308
348 349 348 330 322 322 324 327 325 326 345 347 345 344 345 348 352 356 358 358 358 358 359 355 350 341 333 328 326 328 323 322 320 319 318 314 313 311
353 345 334 326 321 321 321 323 323 333 341 340 342 345 348 353 356 355 354 354 358 357 359 354 345 337 333 328 324 319 317 318 318 317 315 315 314 316
339 340 333 334 333 336 337 321 329 337 340 341 343 348 352 354 352 352 349 354 344 337 342 343 338 335 329 326 322 316 316 314 315 313 315 314 314 314
341 349 345 344 347 345 346 344 333 341 344 349 350 351 353 351 349 350 352 350 335 333 333 336 323 321 320 323 318 316 314 313 312 313 313 312 312 312
340 347 346 348 347 348 345 348 350 344 349 350 351 351 350 348 348 348 347 336 333 333 331 334 330 324 319 316 318 315 314 313 313 313 316 312 310 312
347 348 348 348 349 349 348 347 347 354 356 356 355 353 352 351 348 341 336 334 331 331 332 332 330 327 322 318 313 310 315 316 317 314 314 313 311 311
348 347 348 350 351 351 352 352 355 355 352 351 350 349 348 346 343 339 336 332 330 330 328 329 329 327 323 321 320 312 303 315 315 314 311 312 312 313
348 349 349 350 350 354 353 355 355 352 351 351 349 347 347 342 336 335 334 323 323 327 326 327 330 328 329 328 319 311 309 306 312 316 314 310 308 308
347 348 348 352 351 352 348 346 343 342 343 340 338 336 335 334 332 332 333 330 328 328 327 328 328 327 325 321 319 315 309 308 308 311 314 314 312 309
342 342 341 339 341 340 339 339 341 339 338 336 334 332 332 332 333 331 331 328 327 327 327 326 325 328 325 324 320 316 310 308 307 307 308 310 311 311

GFSNE_sfc_thetae_066.txt.gz
Theta_e
348 345 346 345 341 340 337 332 328 323 325 331 335 340 341 338 342 343 345 344 342 340 337 336 337 339 340 342 343 343 344 344 344 345 346 346 349 350
347 346 344 345 342 344 346 337 335 329 326 332 333 337 345 343 346 346 344 344 342 339 337 335 336 337 338 338 339 339 340 341 341 341 342 342 343 345
345 345 346 346 344 343 346 347 342 336 330 333 336 342 341 340 342 342 346 345 346 341 339 338 336 335 336 337 337 336 337 337 338 339 340 341 341 342
346 346 348 352 347 345 345 346 344 342 338 335 335 338 340 345 346 346 350 354 351 349 341 337 336 335 334 333 331 331 330 331 332 333 335 337 339 339
349 347 348 348 348 347 347 347 346 346 343 339 341 342 346 346 345 345 346 348 352 349 342 339 337 336 334 333 330 327 323 322 323 324 327 329 333 336
350 350 350 349 347 348 348 348 348 346 345 342 341 341 343 346 345 345 343 343 347 350 349 344 342 344 341 338 338 336 328 323 321 320 320 320 324 327
350 351 352 351 347 346 350 349 348 346 346 345 343 343 344 345 343 344 342 343 344 346 347 349 354 354 356 349 350 337 327 324 322 321 320 318 317 318
348 349 350 348 347 341 340 343 349 349 348 346 346 346 345 342 342 341 340 338 338 348 348 351 353 352 356 355 336 328 325 323 322 320 318 317 317 317
351 351 351 355 347 351 340 336 336 338 343 351 347 346 343 346 344 341 342 340 342 350 349 350 349 351 354 354 329 325 323 321 320 318 317 315 312 311
353 354 352 352 351 349 349 349 349 347 341 340 343 347 348 349 347 349 346 344 348 353 352 342 351 350 352 346 328 325 322 320 318 317 316 314 311 309
349 351 353 353 341 332 349 347 348 349 343 331 333 332 331 330 336 343 344 342 342 344 346 348 347 346 345 342 336 324 320 317 316 316 316 313 310 309
348 350 335 347 333 328 346 349 346 348 346 345 345 335 330 338 331 340 347 343 342 341 349 350 344 342 339 340 330 326 324 317 314 313 313 312 309 314
346 346 349 328 324 322 326 350 347 348 344 343 346 347 349 350 349 345 342 344 340 342 350 351 344 341 339 334 330 323 321 318 318 316 312 310 308 310
350 348 347 326 320 320 321 327 324 327 343 345 345 346 346 345 347 347 351 348 350 354 358 354 349 343 331 324 324 324 319 316 314 315 315 312 311 311
354 345 330 322 319 320 319 322 320 331 336 338 341 344 346 348 347 349 354 355 355 355 353 351 349 334 329 325 322 316 315 315 313 312 315 314 313 314
340 347 338 332 328 333 332 327 330 335 338 339 341 343 342 344 347 350 349 350 348 338 337 334 335 331 326 323 319 315 314 313 311 310 311 314 313 314
341 348 338 336 339 337 338 339 330 330 333 337 337 339 343 345 348 349 350 349 343 332 331 327 319 319 319 321 316 314 313 311 311 312 309 312 312 312
331 346 346 346 343 345 345 344 343 335 338 339 343 345 346 348 349 349 349 341 332 331 331 331 320 321 318 317 318 315 313 311 313 312 309 311 310 312
347 345 347 347 347 347 348 347 346 348 346 344 346 348 350 349 343 346 339 333 330 329 330 330 327 325 320 319 316 311 314 313 311 313 312 312 310 310
345 349 346 348 348 348 349 348 348 347 351 350 350 352 351 348 343 341 337 331 328 329 327 326 326 326 324 321 318 312 304 313 311 311 311 311 311 313
339 347 346 343 342 343 344 345 346 347 348 351 351 350 348 345 341 337 333 322 324 327 325 325 327 324 325 322 317 311 310 306 311 311 310 310 308 310
338 340 343 344 334 334 336 336 335 340 344 346 344 342 340 338 334 331 330 328 326 327 326 326 325 325 324 322 317 314 309 307 308 310 313 312 309 306
339 339 338 332 332 334 334 334 331 332 334 337 336 333 333 331 332 332 331 331 330 328 325 324 323 324 323 321 318 316 310 307 307 306 308 311 312 312

GFSNE_sfc_thetae_069.txt.gz
Theta_e
345 344 342 343 339 337 335 330 327 322 323 329 332 337 341 338 340 339 339 342 342 341 339 338 338 339 340 341 343 343 344 344 344 345 346 347 349 349
346 345 342 342 341 339 342 335 332 327 325 329 332 334 341 344 344 344 344 345 343 340 338 337 337 339 339 339 339 340 340 340 341 341 342 342 343 346
343 343 342 343 342 341 342 343 338 333 329 333 333 340 340 339 344 345 347 346 346 342 341 339 338 337 337 337 337 337 337 337 337 338 339 340 341 342
345 342 343 347 344 343 342 342 341 339 336 334 335 338 339 344 345 346 349 351 349 347 341 338 336 335 334 333 332 331 329 328 329 329 331 334 336 339
347 345 344 344 344 344 343 342 344 345 340 338 340 341 343 343 344 346 346 347 349 347 341 340 339 338 336 332 329 325 322 323 322 323 324 325 327 330
347 347 347 346 345 345 345 345 345 344 343 341 339 339 341 344 344 343 345 344 344 349 348 344 341 343 341 333 329 327 322 319 318 318 318 319 321 323
347 348 348 348 346 344 347 344 344 343 342 341 340 340 341 342 342 342 340 342 344 344 346 350 351 353 351 339 333 329 323 321 318 317 316 315 314 314
347 347 349 347 345 340 338 340 346 345 343 341 342 342 343 342 341 340 337 336 337 344 346 349 352 350 352 332 329 325 322 321 319 318 316 314 314 313
348 347 347 351 345 349 340 336 337 336 340 347 345 344 344 344 341 338 338 338 338 346 347 349 346 346 349 329 325 323 321 319 318 317 315 314 312 311
349 349 348 348 347 348 348 348 346 346 342 342 345 350 349 349 344 345 342 341 344 349 352 347 346 349 341 328 325 322 320 318 316 315 315 312 309 309
348 349 350 350 340 332 347 346 346 347 341 331 332 332 330 329 332 341 340 339 338 342 344 345 348 348 343 335 327 322 318 315 314 314 314 312 309 309
349 348 334 344 332 327 343 347 344 346 346 345 343 335 330 336 328 338 343 341 340 338 345 348 347 344 338 337 326 322 319 315 313 311 313 311 308 315
347 347 348 327 323 321 323 348 345 346 344 343 343 343 343 345 346 341 341 344 340 340 346 354 348 341 339 334 328 322 317 314 313 312 312 309 308 310
347 348 347 324 319 319 321 326 324 324 344 342 340 343 343 345 348 348 347 344 347 348 352 351 350 342 334 324 324 323 317 314 312 311 314 312 311 311
351 343 330 320 317 319 318 322 320 333 339 335 340 341 342 345 345 344 346 348 354 353 354 354 349 338 331 324 322 318 315 315 312 309 311 312 312 313
338 344 338 332 327 332 329 325 330 335 336 337 338 340 340 339 340 343 344 347 350 344 333 328 337 332 325 322 321 316 314 313 311 314 310 313 312 313
340 346 348 341 345 340 337 339 335 333 333 336 337 337 336 337 340 344 348 349 348 336 331 323 319 320 321 320 316 315 313 311 310 309 307 311 311 312
335 345 346 347 346 346 346 343 341 334 334 335 335 336 336 338 341 344 347 349 346 339 330 326 319 320 320 318 319 315 313 311 310 310 310 311 309 312
346 346 346 348 347 347 346 346 344 344 343 339 339 340 342 342 341 345 347 341 336 333 331 328 322 323 319 319 317 313 315 312 310 313 312 312 310 310
346 347 347 347 348 347 347 346 347 346 345 346 343 344 344 345 345 346 345 338 331 329 327 326 326 327 323 321 320 314 305 313 311 312 311 311 311 313
337 346 348 349 348 347 345 347 347 347 345 347 346 346 344 343 345 344 342 323 325 328 326 325 329 324 323 320 318 314 311 304 309 311 312 311 310 310
340 340 345 346 346 347 343 341 340 337 331 328 328 329 329 329 329 332 338 333 329 329 327 327 325 324 322 321 318 315 311 308 308 310 312 312 309 307
338 339 342 340 335 335 334 332 331 329 330 330 331 330 330 329 331 331 330 333 331 329 327 325 325 324 322 321 318 316 311 308 308 308 310 312 313 312

GFSNE_sfc_thetae_072.txt.gz
Theta_e
351 351 349 350 346 344 345 338 338 334 335 341 343 348 350 353 352 353 353 346 342 341 339 338 339 340 342 342 343 343 344 344 344 344 345 346 348 351
351 351 351 349 348 346 348 343 340 337 336 338 343 344 350 351 354 357 355 346 344 341 340 338 338 340 341 341 340 340 340 341 341 341 341 341 343 344
351 350 350 350 348 347 347 350 346 341 340 345 341 349 351 354 358 358 358 359 358 344 341 339 337 337 338 338 337 336 335 334 334 334 335 336 338 341
350 350 349 349 350 351 348 349 349 348 345 344 347 348 352 356 356 358 357 358 358 348 340 337 336 336 334 333 330 328 327 327 327 327 328 329 331 333
350 350 350 350 350 351 351 350 349 351 349 346 348 351 351 353 355 358 358 360 355 348 342 340 339 337 333 327 325 322 319 319 320 320 321 321 323 325
352 352 353 351 351 352 351 352 352 351 352 349 348 348 350 354 353 351 353 357 352 355 351 345 341 342 331 327 326 324 319 317 317 317 317 315 315 317
353 352 353 352 346 348 353 354 353 350 349 349 349 349 351 352 352 354 350 350 354 354 355 358 359 361 350 332 330 326 322 320 317 316 314 314 315 316
351 352 354 348 347 339 337 339 349 353 352 351 351 349 352 351 354 351 349 348 346 356 354 355 360 358 351 338 326 323 321 319 317 316 316 315 314 313
353 353 352 352 348 354 341 336 336 335 340 355 352 353 352 356 355 353 351 347 348 353 354 351 359 355 342 332 324 322 320 318 316 316 315 314 312 311
353 352 352 353 352 353 353 353 353 354 350 347 349 354 357 358 357 356 353 351 352 354 356 349 357 354 338 334 323 321 319 317 315 315 314 312 309 308
353 353 353 352 340 331 352 351 353 353 343 331 334 334 332 330 338 350 347 346 347 350 356 353 354 356 347 340 332 322 317 315 314 314 314 312 309 309
350 352 334 347 331 326 349 352 349 351 354 355 352 340 332 340 327 344 350 347 349 348 356 352 357 353 351 349 338 334 330 315 313 312 312 310 308 318
345 347 352 327 323 319 325 352 349 350 348 351 353 353 353 352 351 346 349 350 350 350 357 358 356 351 348 349 345 336 330 326 323 320 312 309 308 310
346 348 349 323 319 318 321 326 324 326 349 351 350 349 349 350 353 355 356 353 355 357 361 360 351 353 350 342 341 336 330 327 324 321 319 313 312 312
350 342 329 319 317 320 319 321 319 336 342 344 345 347 350 352 355 354 355 356 356 355 353 353 352 353 349 341 339 335 329 329 324 321 319 316 315 316
336 343 338 334 329 336 334 328 334 340 341 342 345 348 350 348 347 350 349 353 350 353 343 337 341 350 340 338 335 334 329 331 326 321 321 318 317 316
337 346 348 348 347 346 344 346 341 340 339 342 343 344 344 346 345 349 349 350 349 350 346 329 327 336 336 336 332 330 330 328 325 322 321 318 317 316
335 344 344 346 347 346 346 347 347 341 344 345 344 345 344 344 344 346 348 349 349 350 349 337 328 330 330 330 327 331 326 327 324 321 318 317 316 316
346 344 345 347 347 346 347 347 349 349 349 346 345 345 344 344 341 345 349 347 349 351 348 333 328 329 329 331 332 317 329 325 321 320 318 316 315 315
348 348 349 349 349 349 348 348 349 352 349 347 345 344 345 345 344 346 348 348 347 347 340 335 332 330 333 334 334 329 307 325 324 322 317 315 315 313
340 348 351 353 352 349 350 351 352 352 352 350 350 349 349 347 345 346 347 329 333 339 336 333 335 328 331 330 330 328 323 306 317 324 319 317 315 315
347 345 348 351 351 351 349 350 351 349 350 351 351 350 346 345 344 344 343 338 335 337 337 335 331 329 329 331 331 329 325 319 311 310 314 317 318 317
350 348 347 348 349 350 349 349 349 350 349 346 339 337 338 334 334 334 331 329 333 333 333 330 328 329 329 329 327 326 325 322 320 319 320 312 313 313

GFSNE_sfc_thetae_075.txt.gz
Theta_e
360 360 357 358 357 356 356 354 346 337 339 348 347 357 358 360 360 364 364 350 344 342 341 339 340 342 343 344 344 344 344 344 344 344 344 344 345 348
357 360 360 356 357 356 354 355 353 349 340 351 351 356 361 361 360 365 364 352 349 344 342 338 338 340 341 342 341 340 340 339 338 338 338 339 340 342
361 360 360 363 355 355 355 355 354 352 345 346 355 359 363 365 364 367 363 363 360 346 341 338 336 337 338 337 335 335 334 332 332 331 332 332 333 335
358 360 358 357 360 361 357 359 356 358 352 352 357 356 361 364 366 366 362 359 364 349 341 338 337 336 333 330 329 327 326 325 324 323 323 324 325 326
358 358 358 360 359 357 359 357 357 358 358 355 353 357 359 360 361 364 364 366 360 350 343 342 340 336 329 326 324 321 319 319 319 319 318 318 320 322
361 360 360 360 360 362 360 361 360 358 358 356 353 353 356 361 360 354 353 357 358 361 355 349 344 335 329 326 325 323 319 317 316 316 316 317 319 319
361 361 361 358 349 352 357 361 362 357 355 353 352 352 351 351 352 354 352 355 360 362 360 356 358 364 351 332 331 325 321 319 316 316 315 314 314 315
360 361 362 352 350 340 339 340 351 359 357 352 349 349 357 356 354 353 352 351 347 359 359 354 359 362 366 359 325 323 320 318 317 316 315 314 314 314
361 361 359 357 354 362 342 336 337 335 340 359 356 355 357 359 360 359 358 355 353 355 360 352 358 360 368 339 324 322 319 318 316 315 315 314 312 311
361 362 362 362 361 360 361 359 360 361 358 353 356 359 361 363 365 363 361 361 359 358 364 351 357 359 367 354 324 322 319 317 316 315 314 312 309 309
362 362 363 362 347 334 358 358 359 359 344 335 335 334 334 332 341 358 354 351 348 349 357 355 356 359 364 361 343 322 319 316 315 314 314 312 309 309
357 361 337 352 334 327 354 357 356 356 356 356 358 347 337 349 328 352 356 351 349 347 356 354 353 357 353 365 358 343 338 316 315 313 313 311 308 327
350 350 352 328 325 320 327 359 356 356 350 357 355 354 356 360 360 356 359 356 352 350 354 360 355 356 358 356 358 354 348 342 339 332 313 310 309 313
352 353 353 323 319 318 323 331 325 330 354 352 350 350 350 352 355 359 365 363 361 360 365 366 357 356 356 355 353 351 345 343 340 335 331 318 312 312
353 346 330 318 316 322 319 323 321 348 350 349 349 350 352 353 361 361 363 365 365 364 362 365 362 361 359 356 355 348 343 342 340 335 334 329 325 323
336 347 341 335 331 339 340 331 345 351 350 350 351 353 354 354 354 357 355 355 354 356 364 364 362 359 353 355 355 347 347 341 338 338 335 333 329 326
342 349 350 350 350 351 351 354 354 352 350 352 353 353 352 353 353 356 355 354 352 352 353 355 352 356 358 355 347 347 346 341 339 337 334 333 331 326
339 349 350 351 350 350 349 350 351 348 354 353 353 353 352 352 352 354 355 354 352 352 353 355 348 345 343 343 338 347 344 341 338 333 331 330 332 328
346 350 349 348 348 349 351 352 351 352 356 355 353 353 352 352 351 352 353 354 353 353 354 355 350 347 345 343 344 317 343 340 336 332 331 330 330 327
348 349 349 349 351 353 353 354 355 352 352 354 354 353 353 352 352 352 353 353 353 353 353 356 351 346 349 350 347 344 310 342 337 335 330 327 323 313
341 348 353 354 353 354 357 358 357 354 350 352 354 355 354 354 353 354 355 332 340 354 350 349 352 336 355 343 339 336 332 309 322 337 333 329 325 323
355 352 355 357 357 355 356 356 358 356 352 351 352 352 353 353 353 352 352 351 348 348 347 351 350 346 344 340 338 342 335 328 313 311 314 321 328 325
357 357 358 357 357 357 357 355 354 355 354 352 353 354 352 351 352 352 348 345 344 342 343 342 339 338 335 337 334 342 332 328 327 326 327 314 313 314

GFSNE_sfc_thetae_078.txt.gz
Theta_e
359 358 355 353 355 357 356 353 346 339 343 350 349 358 358 358 359 363 364 352 349 346 342 340 341 342 345 346 345 344 344 342 341 341 340 340 341 343
356 359 361 354 355 355 354 353 352 347 341 347 352 356 363 362 361 365 363 354 356 348 342 340 340 342 343 342 341 340 338 336 335 334 333 333 333 334
361 361 361 363 355 352 353 352 351 351 345 346 351 356 365 365 365 368 363 362 355 346 343 340 339 339 340 338 336 334 332 330 328 327 327 327 327 327
360 361 360 356 362 361 355 360 358 357 351 354 358 353 361 365 366 367 360 358 361 349 343 341 340 338 333 331 329 327 325 324 323 322 322 323 325 326
359 361 360 360 360 356 359 354 354 355 355 351 350 352 355 359 362 366 364 365 356 349 342 341 340 335 330 326 324 322 319 319 319 319 319 321 322 324
363 363 362 360 360 362 361 362 361 359 358 352 350 351 352 360 359 352 349 351 352 356 354 348 343 335 329 325 324 323 319 318 317 317 317 316 317 318
364 365 364 360 349 352 356 365 365 358 353 350 349 350 349 349 354 350 348 349 355 354 355 355 353 355 341 330 332 325 321 319 318 316 315 315 316 317
362 364 366 354 353 341 341 341 350 361 358 349 345 346 359 356 352 349 348 347 344 353 355 349 353 352 361 367 329 324 320 318 317 317 316 315 314 315
363 362 359 357 357 363 344 338 339 336 339 360 358 357 360 360 363 360 363 355 353 353 356 349 355 352 361 335 325 322 320 318 317 316 315 314 312 311
363 363 365 365 361 360 361 360 362 363 360 356 358 360 364 365 366 365 365 364 361 358 364 347 353 351 360 354 325 323 321 318 317 316 315 312 310 308
362 365 366 367 349 334 361 362 361 362 343 336 338 336 332 331 341 357 352 348 344 345 352 347 349 350 356 359 337 324 320 318 317 315 315 312 310 309
360 364 339 354 336 329 361 363 360 360 354 355 358 349 340 352 332 356 357 350 346 343 354 349 347 348 347 358 365 336 336 317 315 316 314 311 310 333
351 352 354 329 326 322 327 364 357 358 350 353 351 351 352 354 358 361 363 358 349 345 348 355 350 350 350 351 360 369 361 334 342 326 311 310 310 315
354 354 356 325 319 320 326 332 325 329 350 343 342 343 344 346 347 355 371 369 364 367 369 373 355 350 350 350 350 361 359 354 349 347 345 319 312 311
356 347 328 318 314 320 318 322 322 349 349 347 344 345 346 348 359 362 371 376 374 371 367 369 364 364 358 353 352 355 356 355 350 346 346 342 338 337
336 345 343 336 328 338 343 335 346 352 350 349 348 348 350 349 349 352 351 352 353 355 371 371 373 369 359 357 357 357 358 352 350 347 345 341 338 338
344 353 352 352 353 354 355 356 356 354 351 352 352 351 352 352 351 353 351 351 349 349 351 357 370 369 362 364 356 360 357 356 354 350 344 341 339 338
345 351 353 354 354 355 355 356 357 351 356 355 353 353 351 351 351 352 352 349 349 350 352 353 357 357 353 358 352 359 357 355 355 349 344 339 336 336
349 352 353 354 356 357 356 355 355 357 364 358 358 356 354 352 349 350 349 350 351 352 353 355 354 355 349 344 352 333 356 355 351 346 343 339 336 337
347 351 353 355 355 354 354 355 356 357 358 359 357 357 357 353 351 350 351 352 352 353 354 356 355 355 353 348 345 354 316 356 350 345 342 339 327 313
344 349 354 354 357 358 359 359 362 360 361 360 358 358 358 356 353 352 352 333 340 355 354 356 359 339 365 361 350 353 347 312 325 348 346 335 330 329
350 351 353 356 359 360 360 361 362 359 362 360 359 359 359 358 357 356 356 355 358 358 357 362 362 358 351 350 348 352 346 337 322 318 315 320 333 327
348 353 356 359 359 361 365 365 360 362 360 358 359 359 359 354 354 354 354 356 354 354 355 354 350 349 345 345 342 344 342 334 337 336 335 314 314 315

GFSNE_sfc_thetae_084.txt.gz
Theta_e
363 362 362 357 355 355 353 352 348 342 343 351 349 361 361 361 362 361 365 355 350 351 347 346 343 345 347 345 344 342 340 337 335 334 333 333 333 333
359 362 362 357 357 353 348 355 355 350 343 349 350 362 364 361 363 364 366 355 353 354 347 347 344 345 345 344 341 338 336 333 331 331 330 330 330 331
362 361 359 364 359 358 356 356 352 354 348 350 357 360 359 362 362 367 368 366 361 350 351 346 343 344 342 341 337 335 332 329 327 327 327 327 327 328
360 358 358 358 363 363 359 357 358 359 354 349 354 353 354 356 369 366 368 362 360 353 346 345 343 341 337 336 333 330 327 325 323 323 322 322 322 323
361 360 360 362 362 358 363 359 356 357 356 354 350 357 354 354 356 362 366 366 366 350 345 342 343 338 334 330 328 325 321 321 320 320 319 319 321 322
364 363 363 363 362 361 360 360 359 358 355 354 350 349 350 353 358 356 354 353 352 355 352 348 346 339 332 327 326 324 319 319 319 318 318 317 318 320
363 363 364 362 354 357 359 359 358 357 355 352 349 349 350 354 351 353 349 354 352 354 351 352 350 343 335 328 332 330 324 321 319 318 317 315 315 316
359 363 365 357 352 342 340 342 348 358 357 357 353 348 349 353 356 355 353 347 343 358 353 350 351 348 351 340 335 330 325 322 320 318 317 315 315 315
362 362 362 356 351 361 343 339 340 337 340 350 349 352 354 356 359 358 357 355 353 354 355 348 355 353 356 348 335 328 323 321 320 318 317 316 314 313
359 363 362 359 360 362 363 361 356 357 354 347 348 349 351 354 357 356 356 355 359 361 361 350 356 354 356 343 328 326 322 321 320 318 316 314 311 309
355 359 359 358 348 337 354 357 359 362 348 340 341 340 338 336 341 353 350 347 342 343 350 345 344 347 351 344 329 325 321 318 318 318 317 315 312 309
357 357 339 346 335 330 350 358 353 353 355 358 355 343 337 343 333 346 352 348 346 343 347 345 345 345 342 354 341 327 323 317 315 316 316 314 311 324
354 354 356 331 326 325 324 352 351 354 352 356 357 356 355 357 357 353 354 352 348 346 350 349 345 353 350 346 351 339 333 329 322 319 313 312 310 313
354 357 356 322 316 317 323 329 326 331 353 353 354 352 351 350 350 350 358 357 356 352 354 357 355 353 349 347 346 349 344 344 335 336 326 318 310 312
341 337 323 322 319 323 318 319 318 339 345 346 347 348 351 353 354 351 349 361 360 361 360 360 357 358 356 351 349 350 345 348 344 347 335 330 325 325
330 331 329 324 325 332 335 344 334 343 346 347 347 350 353 352 352 352 347 345 345 357 365 364 365 362 356 356 355 352 352 349 357 353 351 345 341 339
320 329 336 345 352 354 355 354 355 350 348 350 350 351 352 352 351 351 348 346 345 345 345 358 366 365 362 359 355 355 353 354 355 353 349 345 344 340
320 327 331 336 343 344 349 351 354 351 355 354 352 352 350 350 350 351 353 348 345 346 346 348 354 358 359 362 354 356 356 355 355 353 349 345 344 343
317 327 331 334 339 343 345 343 343 352 355 356 355 355 352 351 347 348 348 348 349 350 350 352 352 349 342 342 355 339 354 354 355 352 349 347 345 343
325 331 335 338 339 345 349 347 347 350 351 353 353 354 354 353 352 352 352 349 347 345 346 354 350 346 343 342 344 350 324 355 352 351 348 342 317 319
333 336 338 340 343 348 350 351 354 351 339 346 354 356 357 355 354 354 353 331 334 349 346 346 348 340 360 359 349 347 352 320 329 352 351 345 330 328
331 335 338 341 344 347 345 344 344 350 352 351 351 352 355 355 354 354 353 352 350 350 349 353 356 356 353 347 345 345 347 336 324 323 322 332 341 331
323 327 332 337 342 341 343 346 346 348 349 349 350 350 352 350 353 354 353 352 352 351 350 349 349 351 349 349 340 346 348 349 338 332 331 319 319 314

GFSNE_sfc_thetae_087.txt.gz
Theta_e
347 348 347 348 345 345 348 337 335 328 331 338 343 349 350 353 356 353 356 355 351 351 352 346 344 344 347 346 344 341 340 336 334 333 332 332 332 333
352 347 348 349 347 348 347 345 342 336 331 341 342 352 354 354 355 350 358 354 351 352 348 348 344 344 346 344 341 338 336 334 331 330 329 329 329 330
348 350 346 350 347 348 350 347 345 343 338 343 348 349 345 344 347 351 358 357 356 350 346 345 343 342 342 341 339 335 333 331 328 327 326 325 325 325
348 349 347 352 348 350 348 346 345 343 341 335 340 342 343 348 350 352 360 361 356 355 343 343 342 339 338 336 334 331 328 327 325 323 322 322 323 323
350 349 349 348 348 347 345 350 348 348 348 344 343 346 347 344 343 345 349 355 356 353 342 341 340 337 334 332 329 326 322 322 321 320 319 319 320 323
352 353 351 347 348 349 347 346 348 346 345 343 342 341 341 345 347 348 340 343 346 349 347 344 341 339 335 330 328 325 319 318 318 318 318 317 318 320
352 354 355 355 352 351 351 348 347 346 345 345 343 342 343 343 341 345 344 345 343 341 345 346 343 340 338 332 333 331 322 320 319 317 317 315 315 316
349 352 355 354 350 342 341 343 350 348 345 345 345 344 342 342 347 347 346 342 339 348 347 348 347 348 345 337 334 330 325 322 320 318 317 315 315 315
353 352 352 355 349 352 344 338 337 336 339 342 339 340 341 344 345 345 343 344 343 348 348 349 350 348 355 345 333 329 325 322 320 319 317 316 315 313
350 353 354 353 351 350 353 353 349 348 345 341 343 345 344 345 344 346 345 346 348 352 353 346 348 348 350 345 331 329 325 321 319 318 316 315 312 310
348 349 351 351 345 336 347 347 348 354 346 335 337 336 335 334 338 345 344 341 341 342 340 338 341 335 337 343 333 327 323 319 317 318 317 315 311 309
349 349 335 342 332 329 343 346 345 348 349 349 346 338 335 341 332 339 345 340 340 341 343 339 338 336 336 341 333 324 321 317 315 315 316 314 311 318
349 350 351 323 317 316 316 339 344 343 344 347 351 351 351 349 348 346 346 346 344 344 346 342 336 337 342 341 342 329 324 322 320 316 312 312 311 311
336 341 340 319 317 315 321 322 320 324 338 343 345 347 349 350 351 349 352 351 351 349 350 344 341 341 339 339 340 341 333 331 325 326 323 315 311 311
334 329 320 316 314 324 319 320 318 327 331 335 339 342 346 348 350 348 347 345 352 353 353 351 349 349 345 344 341 342 342 342 334 332 328 323 320 316
329 330 325 320 319 325 327 334 339 344 342 340 339 343 345 346 346 349 348 348 346 345 351 355 353 352 348 349 349 347 346 344 341 338 338 330 325 324
313 322 325 327 329 334 343 349 349 344 338 341 342 343 344 345 346 348 348 347 342 342 339 344 358 357 357 353 345 350 348 346 348 347 343 337 333 332
313 317 321 324 325 328 333 339 344 345 347 346 345 344 345 344 346 347 347 346 343 342 340 340 342 349 350 352 349 350 347 349 350 345 345 342 340 337
310 314 318 322 325 328 330 336 339 343 344 344 346 347 348 347 343 345 345 343 343 342 341 343 341 340 337 337 343 335 351 351 350 344 342 341 341 342
309 316 321 325 329 331 333 335 342 344 339 339 341 338 339 340 337 339 345 343 340 341 340 342 345 345 341 339 338 342 323 354 347 345 342 332 320 319
315 319 324 329 333 334 337 339 342 344 342 342 341 338 336 334 333 332 338 332 333 343 342 343 345 335 348 348 340 341 345 317 331 347 344 337 324 322
314 315 316 318 321 324 332 336 337 338 340 340 342 342 334 332 333 335 345 344 342 342 344 346 346 346 343 340 341 340 339 332 323 321 321 328 334 329
312 313 315 318 324 325 325 323 323 324 326 329 333 335 341 343 345 344 344 344 344 344 342 343 341 341 341 341 338 339 340 338 330 328 326 318 319 317

GFSNE_sfc_thetae_090.txt.gz
Theta_e
344 343 343 344 343 343 342 339 333 326 327 336 341 349 349 350 351 351 349 350 348 345 343 343 342 343 346 347 344 341 340 337 334 332 331 332 333 333
348 346 343 345 345 346 345 343 340 333 328 337 341 349 349 346 348 350 349 349 348 345 343 341 341 341 343 344 342 339 337 335 332 330 329 328 329 330
346 346 345 344 343 343 346 343 341 341 333 338 346 347 343 343 347 346 348 351 355 346 343 340 339 338 340 341 339 337 335 333 331 327 327 325 325 325
345 344 346 348 343 345 346 341 343 342 341 337 339 342 343 345 342 342 348 354 354 349 339 337 337 337 336 336 334 333 330 329 327 325 323 323 324 324
346 345 346 345 343 343 344 342 344 345 345 342 340 343 343 341 343 344 346 346 348 347 340 339 337 336 333 331 330 327 323 321 322 321 321 320 321 324
350 349 349 347 344 343 344 343 343 342 341 340 339 339 340 343 343 342 342 343 345 349 344 341 340 339 334 330 330 328 322 318 317 318 318 318 319 320
350 351 351 351 346 344 349 346 343 342 341 339 340 339 341 341 340 343 342 343 342 340 344 344 343 345 343 334 336 335 326 321 318 316 316 316 315 316
348 348 350 349 347 341 340 340 343 344 342 341 340 339 339 340 341 343 340 338 334 343 344 344 348 349 348 345 337 332 327 323 320 318 316 315 314 315
349 348 349 354 347 352 344 337 335 335 340 343 340 339 337 339 340 337 336 337 337 342 343 343 347 347 350 348 335 330 327 323 320 318 317 316 314 312
346 350 350 351 349 348 348 347 348 347 341 340 341 345 343 345 339 342 339 339 342 345 347 341 341 340 343 342 335 330 325 322 319 318 316 314 312 310
346 346 347 348 340 333 344 346 346 347 344 332 333 332 331 330 334 341 339 338 341 341 342 339 342 335 335 336 339 327 323 319 318 317 316 314 311 309
347 348 334 338 326 320 338 345 344 345 345 345 347 337 331 337 329 339 345 341 340 338 342 337 337 335 332 337 338 329 325 317 314 314 315 313 310 315
338 343 343 320 315 314 315 329 334 337 336 340 342 346 348 347 346 342 343 345 343 341 345 341 336 333 336 336 340 335 326 324 320 315 311 310 309 312
327 332 335 319 312 311 317 322 319 322 330 334 337 340 343 345 349 349 348 346 349 348 351 343 340 341 334 333 336 339 335 328 324 323 322 314 309 309
329 325 317 312 312 317 320 319 319 328 330 331 334 337 341 345 346 347 347 350 350 349 350 349 346 346 341 340 339 338 338 341 331 330 325 323 323 319
322 321 320 317 316 318 321 330 334 336 337 339 341 344 345 343 342 345 343 344 344 345 347 350 349 347 344 344 343 342 342 341 340 334 332 328 324 322
304 312 315 317 319 321 324 327 330 341 342 342 341 341 341 341 342 343 343 343 341 342 344 345 346 349 348 346 342 345 346 344 347 343 334 331 329 328
306 308 310 313 316 318 321 324 327 332 336 339 342 341 341 342 342 344 342 344 343 343 343 344 339 340 347 349 346 348 344 347 348 345 342 340 340 335
303 306 308 312 315 319 323 326 327 332 336 339 340 341 341 342 342 343 344 345 343 342 343 344 339 334 334 333 339 334 349 348 348 340 345 344 345 343
303 307 310 314 317 321 325 329 331 334 338 340 339 338 339 339 337 336 336 335 334 334 336 337 340 341 338 338 338 342 320 351 345 345 341 337 326 317
305 308 310 312 312 313 316 321 328 331 330 332 334 336 339 339 335 334 334 321 323 331 332 335 341 332 343 341 338 338 340 316 328 347 342 337 329 325
302 305 309 312 314 316 319 321 321 319 319 320 321 322 327 330 331 332 332 331 333 337 339 342 345 344 337 339 339 339 336 335 324 321 324 327 333 329
300 302 304 305 307 311 314 313 312 312 312 311 312 313 314 314 318 322 329 335 339 339 339 339 342 339 339 338 333 339 336 338 332 330 334 320 323 317

GFSNE_sfc_thetae_093.txt.gz
Theta_e
342 341 341 343 341 342 340 338 331 326 326 334 339 347 346 347 349 348 347 345 344 343 341 341 341 343 345 347 346 344 341 339 335 334 333 334 333 333
344 344 341 343 344 343 343 341 338 331 328 334 340 344 346 345 348 347 345 346 346 343 341 338 338 341 342 343 343 342 339 337 334 332 331 329 329 328
343 343 342 342 341 340 344 341 340 338 333 337 341 344 342 342 344 344 347 348 350 343 340 337 336 338 339 340 340 339 338 336 332 330 328 327 327 327
343 342 342 347 341 341 344 339 341 340 338 334 338 340 341 343 342 342 346 350 346 345 339 336 335 336 335 334 334 334 332 331 330 327 326 325 324 326
346 344 342 343 342 341 340 340 341 343 341 339 338 340 341 340 342 342 345 344 348 346 340 338 338 336 334 330 329 328 324 324 323 323 322 322 322 324
347 347 346 346 344 342 341 341 341 340 339 337 336 337 338 341 341 339 341 342 343 346 342 340 339 339 337 332 330 330 324 320 318 318 319 319 320 321
346 347 349 348 345 343 347 345 343 340 339 337 336 336 337 337 336 339 339 339 339 339 338 342 341 344 346 339 340 337 330 325 319 316 316 316 316 317
347 347 348 346 345 339 337 339 344 344 341 338 338 337 337 338 338 338 337 333 331 338 340 341 343 344 346 346 340 335 331 327 322 318 316 315 315 315
346 347 348 351 345 348 342 335 336 334 338 344 340 340 338 338 338 336 334 334 333 339 340 341 342 342 344 343 335 333 329 325 322 319 318 316 315 314
342 344 346 347 348 347 347 346 346 346 343 340 341 345 344 345 340 342 339 336 337 340 343 338 339 339 340 340 333 330 326 323 320 319 317 315 312 311
343 344 344 344 334 325 340 343 344 346 341 331 331 331 330 328 334 339 337 335 341 342 342 340 341 335 336 337 337 327 323 320 318 317 317 315 311 309
338 341 325 327 319 316 331 332 334 339 341 340 341 340 330 335 329 336 344 340 341 337 342 339 335 335 332 335 337 338 333 320 315 314 315 314 311 316
328 331 334 323 321 318 314 323 331 334 335 339 340 341 342 344 345 339 340 343 342 342 345 340 336 333 333 334 337 339 335 328 323 318 310 310 309 314
322 325 326 313 310 311 313 318 315 318 329 333 336 338 340 341 344 346 346 344 347 347 350 342 338 338 334 331 334 338 337 334 327 327 323 315 308 309
321 320 315 312 311 316 317 317 317 325 327 331 332 337 340 343 343 343 344 347 347 347 348 348 344 346 343 340 340 338 335 338 331 331 328 323 322 317
311 309 312 313 313 316 318 322 326 330 332 334 337 341 344 343 342 341 340 341 340 342 346 349 349 346 343 344 343 340 342 335 338 334 334 329 326 324
300 307 309 309 311 312 315 318 322 324 326 330 335 338 339 340 341 342 340 340 338 340 341 343 343 345 346 344 340 340 341 341 343 343 333 334 330 329
304 304 306 307 308 311 314 318 322 325 328 331 333 335 337 340 341 343 341 340 339 340 342 346 343 335 339 342 341 342 342 342 345 344 338 338 341 334
303 304 305 307 310 312 315 318 320 324 329 332 334 335 336 338 336 338 341 341 341 341 342 343 339 337 334 330 337 332 344 345 345 339 344 342 342 343
299 300 302 304 307 309 310 311 315 321 324 324 326 328 327 327 330 335 337 335 335 336 335 335 335 336 333 332 335 342 319 346 343 343 341 342 332 319
297 298 300 302 305 308 308 309 310 314 317 316 319 317 317 317 318 319 320 316 322 331 330 331 333 328 340 341 338 338 342 315 334 346 342 338 332 329
294 295 296 298 299 301 302 305 308 310 311 313 313 313 313 313 312 312 313 313 317 323 328 333 337 339 339 338 336 337 338 336 320 316 323 330 333 330
291 293 294 295 296 298 298 299 303 305 309 309 307 308 308 307 308 310 311 311 313 313 317 323 333 338 338 337 333 336 335 335 334 330 332 321 319 317

GFSNE_sfc_thetae_096.txt.gz
Theta_e
349 349 348 349 348 348 347 345 342 336 340 344 348 356 362 359 356 357 355 346 344 343 340 337 339 342 345 346 348 346 343 340 338 335 334 333 332 331
350 350 349 349 351 350 349 348 345 341 338 342 348 353 356 353 354 356 356 348 346 341 338 337 337 340 342 342 344 344 342 339 337 335 332 330 329 329
350 350 350 350 348 348 349 349 347 344 342 347 347 353 354 354 355 356 355 359 355 342 339 336 337 337 339 339 339 340 340 338 336 334 332 329 327 328
349 349 347 349 350 349 349 350 348 349 345 344 347 348 351 354 353 353 354 355 355 347 339 336 338 336 335 334 332 333 333 333 333 331 330 328 326 328
348 349 348 349 350 349 349 347 347 348 348 346 346 348 349 349 352 354 354 356 353 346 339 337 338 337 334 332 330 327 325 325 326 325 325 326 325 325
351 351 350 350 348 350 349 350 348 347 347 346 345 344 346 351 349 347 348 351 350 351 346 340 340 340 337 332 331 331 325 320 319 320 320 320 322 323
353 353 353 351 345 346 353 354 351 349 348 346 345 345 346 347 347 349 346 348 351 349 348 353 352 354 354 344 345 339 331 325 320 318 317 316 317 318
353 355 355 348 348 338 337 337 346 352 351 347 349 347 349 347 349 347 347 346 344 351 349 350 353 353 354 355 341 334 329 327 323 319 316 315 315 316
351 352 351 353 348 353 343 337 336 333 339 354 350 351 350 352 351 349 349 345 346 351 348 348 354 352 354 351 335 331 327 326 323 320 318 316 315 314
346 347 347 348 339 339 347 350 352 353 351 346 347 351 354 354 352 352 351 348 347 349 350 344 353 351 354 353 336 330 328 325 323 319 317 315 312 311
343 340 341 335 324 322 338 340 343 346 341 333 329 330 328 327 333 345 346 345 344 348 352 349 350 348 350 350 352 331 325 323 320 319 317 315 311 309
334 336 327 325 321 321 327 328 331 339 341 340 342 343 338 344 330 341 347 344 345 345 352 347 349 347 345 352 350 353 353 328 318 315 315 314 310 328
327 328 330 316 314 313 312 325 325 326 328 330 334 338 344 347 348 351 348 347 346 346 351 350 348 347 344 345 349 353 352 351 346 337 311 310 309 318
320 323 324 310 308 309 316 315 312 315 328 331 332 334 337 341 346 350 354 350 352 351 356 355 348 348 346 346 345 352 353 353 350 347 346 324 308 309
315 312 310 308 309 315 315 315 317 331 332 331 332 336 341 343 348 350 351 353 354 354 352 355 351 352 349 347 346 349 346 350 353 348 348 344 340 333
309 312 313 312 312 314 318 321 326 328 328 330 331 336 341 341 341 349 345 349 345 346 355 355 356 353 348 349 348 347 350 346 352 351 349 348 345 341
303 314 313 312 313 315 317 320 323 325 326 330 328 329 332 333 334 342 344 343 341 341 344 349 355 355 352 349 343 347 349 349 351 351 350 346 350 348
307 307 307 309 309 310 312 315 317 319 322 325 326 329 330 330 327 333 337 339 338 339 341 344 347 348 349 349 343 347 348 348 351 353 351 346 348 354
301 301 302 303 304 307 311 312 312 313 316 316 324 323 322 320 320 321 323 323 323 328 334 341 343 339 334 332 342 328 344 346 349 352 353 350 348 353
297 297 297 298 299 301 301 303 304 307 309 313 316 317 319 317 317 317 316 317 317 318 323 330 333 333 332 331 334 340 317 343 348 349 350 354 351 326
294 295 296 296 297 298 299 301 303 303 305 310 313 312 312 313 311 311 311 308 309 314 314 317 324 320 332 336 332 334 343 316 333 348 349 350 349 347
292 292 293 295 295 296 298 297 298 298 300 303 305 306 307 307 306 307 308 307 308 310 311 313 319 322 324 324 325 330 336 346 334 317 319 327 345 334
291 291 291 292 293 294 295 296 295 296 296 298 299 300 306 305 305 305 304 304 305 306 307 308 312 316 317 321 321 326 332 340 342 342 340 320 321 322

GFSNE_sfc_thetae_099.txt.gz
Theta_e
361 361 358 358 359 359 358 354 349 339 341 351 351 362 361 360 359 361 363 347 346 343 339 339 340 344 347 348 349 349 347 344 343 341 338 336 334 331
357 360 361 358 358 359 357 357 354 347 340 351 351 358 361 356 355 361 362 350 348 342 339 337 339 341 344 345 345 345 345 343 340 339 336 334 331 330
360 359 359 362 356 355 356 357 354 353 345 347 354 357 361 361 360 363 360 362 357 345 341 339 337 338 339 339 339 340 341 342 340 338 336 333 331 330
357 359 358 356 360 360 355 358 356 357 351 351 356 355 359 363 363 364 358 357 361 349 340 337 336 337 336 335 334 333 332 334 336 335 334 333 330 330
359 357 357 358 360 358 360 364 355 355 357 353 352 356 358 359 360 362 363 364 359 348 341 340 338 338 336 333 331 329 326 324 326 328 329 330 330 329
359 360 359 359 359 360 357 361 358 359 358 353 351 352 355 360 359 355 354 355 355 357 350 344 340 343 339 334 333 333 327 323 320 321 322 323 325 326
361 360 361 357 348 348 360 364 363 358 359 349 349 350 351 351 352 354 352 353 357 357 356 356 355 358 357 347 348 341 333 329 322 319 318 318 319 320
360 362 362 353 351 337 336 337 345 359 360 351 349 350 357 357 356 354 352 350 346 357 357 354 357 357 359 358 340 335 329 328 325 321 318 317 317 317
359 359 358 357 349 354 347 339 338 333 337 357 355 356 356 359 360 358 357 355 352 355 357 351 357 356 360 357 340 333 329 327 326 322 319 317 316 315
347 346 343 334 330 332 349 355 357 359 360 357 359 359 360 361 361 360 358 357 357 357 364 351 355 355 359 360 341 334 331 328 326 321 318 316 313 312
337 331 331 329 324 324 333 337 343 350 341 333 331 328 327 326 333 350 352 351 349 351 358 355 354 354 357 357 359 337 330 325 323 321 319 316 312 310
333 333 319 321 314 315 330 331 331 333 334 335 338 339 340 346 331 351 353 349 349 347 357 353 353 353 349 355 357 359 361 329 321 318 317 315 310 336
326 326 324 313 309 309 311 329 326 325 331 334 335 337 339 342 344 349 356 354 351 349 355 355 353 352 351 350 354 357 359 358 360 353 316 311 309 323
317 319 319 308 307 309 317 312 312 319 335 336 335 336 339 341 344 347 352 353 355 357 360 362 353 352 350 349 348 355 357 359 360 359 360 334 309 310
317 313 311 309 311 316 315 315 318 329 330 331 332 335 337 340 343 344 349 353 356 357 355 359 359 359 356 349 347 350 349 354 358 359 359 358 356 356
311 317 314 314 313 316 320 322 325 325 325 327 329 329 332 335 339 339 338 339 345 345 354 359 360 360 352 351 350 350 352 348 353 356 357 358 359 358
309 312 311 311 313 314 316 319 321 322 322 323 321 324 327 328 328 330 332 329 329 331 338 346 351 357 355 357 349 350 349 350 351 353 358 352 356 359
306 306 305 306 306 307 310 310 313 312 312 313 316 319 320 321 322 324 326 326 325 325 325 329 329 334 339 346 342 345 345 344 347 351 354 349 351 357
301 301 300 301 301 303 303 304 304 307 309 310 311 313 315 316 316 317 318 319 318 321 323 324 326 329 330 327 335 327 337 336 341 344 346 350 350 353
301 301 300 301 302 301 301 302 302 303 303 304 306 308 311 311 311 311 310 310 311 313 314 317 321 323 322 321 321 328 319 337 340 343 346 349 349 333
299 299 299 299 300 301 301 302 302 302 301 302 303 304 306 307 308 309 309 305 305 307 307 310 315 314 319 321 318 321 327 316 326 339 340 345 344 345
298 298 298 298 298 298 299 299 299 300 301 301 301 301 302 303 303 303 305 305 304 304 304 306 309 310 313 313 313 317 319 325 324 321 320 327 343 336
297 297 297 297 297 297 297 297 297 297 298 298 298 299 300 299 299 298 299 301 304 304 305 303 305 306 305 305 307 311 317 319 321 324 331 324 320 320

GFSNE_sfc_thetae_102.txt.gz
Theta_e
359 359 356 354 355 355 354 350 346 338 340 352 349 357 357 355 356 358 358 349 349 346 343 341 342 346 349 350 350 351 351 349 347 346 344 342 341 337
355 360 360 354 355 354 352 351 350 346 340 345 348 355 360 359 357 359 358 353 356 349 344 341 341 343 344 346 346 346 346 347 345 343 342 340 338 334
359 359 360 364 354 352 351 351 350 349 343 344 348 353 362 362 362 364 359 356 353 346 343 342 341 341 342 342 341 341 342 342 343 342 340 339 337 334
355 357 357 354 360 361 354 358 356 357 350 351 357 352 358 362 363 365 359 356 357 349 344 342 340 339 338 337 335 336 334 334 337 338 338 338 337 334
356 356 355 357 357 355 358 355 351 353 356 351 349 351 353 356 358 364 361 362 354 348 342 341 342 339 338 335 332 330 327 326 327 330 332 333 334 334
359 357 358 357 358 359 356 360 357 357 355 351 349 348 349 358 356 350 347 351 351 352 351 346 346 345 341 336 334 334 331 326 322 322 325 326 328 329
360 359 359 356 348 349 359 363 360 357 350 349 347 347 346 353 352 351 348 349 355 354 351 355 353 354 355 344 348 343 335 331 325 320 320 321 322 323
358 360 360 354 352 340 339 338 347 360 357 354 350 349 358 358 353 350 351 349 347 356 358 354 356 354 356 357 342 337 333 331 327 323 319 318 318 319
358 359 358 352 350 354 347 341 339 336 338 359 356 356 357 363 363 359 362 356 354 357 359 352 356 353 356 355 341 336 334 332 329 325 321 318 317 317
351 348 346 342 335 335 350 354 357 359 361 357 360 360 362 360 357 360 359 359 359 359 365 349 354 353 356 358 342 343 338 332 328 325 321 318 314 313
338 338 340 335 317 319 341 343 345 348 338 335 333 328 326 326 334 351 350 356 350 353 359 354 356 355 356 355 357 339 335 328 324 323 322 318 314 311
338 335 317 319 313 313 335 335 334 333 333 337 341 340 336 343 329 352 354 349 351 348 359 355 362 357 350 356 357 359 360 328 321 320 320 318 313 340
329 328 326 313 309 310 312 331 327 329 334 338 339 340 343 345 346 350 353 348 344 344 353 356 357 355 357 351 355 358 359 358 360 352 318 314 311 324
319 319 321 309 308 311 319 314 313 318 331 331 333 335 337 338 340 344 349 350 352 353 358 362 354 360 355 350 349 355 357 357 358 357 359 328 312 312
314 312 312 309 310 314 315 316 316 327 326 325 327 330 333 336 340 344 343 346 348 351 351 358 354 355 356 352 352 351 351 355 358 356 357 358 360 354
315 320 315 314 314 317 320 322 325 325 325 325 325 325 328 330 330 331 329 330 330 333 344 348 345 344 341 346 349 347 354 351 355 355 354 355 359 361
309 315 313 313 313 315 317 317 318 315 315 315 316 317 319 321 322 324 323 323 323 324 326 331 342 343 341 348 339 342 343 346 349 349 351 348 350 352
310 309 307 308 307 308 306 307 310 311 311 311 312 313 315 317 318 318 320 320 319 319 319 321 322 321 324 332 332 336 338 337 340 342 343 338 342 350
309 309 308 307 306 307 308 307 306 307 308 307 308 310 311 312 312 312 313 314 313 314 314 314 315 316 315 315 324 321 327 327 328 330 335 338 339 348
307 306 306 306 306 306 306 306 307 307 307 307 307 307 306 306 306 308 309 310 311 311 310 312 313 313 312 309 312 319 312 323 323 327 329 332 334 326
305 304 304 304 304 305 305 305 305 304 304 306 306 306 306 306 306 306 306 303 304 308 307 308 311 311 312 314 310 311 316 312 316 322 324 324 324 328
304 304 304 304 304 303 303 303 303 303 303 303 303 303 303 304 303 303 304 303 304 304 304 306 308 309 308 307 305 309 310 314 314 313 313 314 320 320
304 304 304 304 304 303 302 301 301 301 301 301 301 300 300 300 301 301 301 301 301 301 302 302 304 306 306 307 305 305 307 308 311 313 315 314 315 315

GFSNE_sfc_thetae_105.txt.gz
Theta_e
362 361 357 352 349 350 350 348 344 337 338 357 348 362 357 357 357 358 361 353 351 352 348 344 346 348 349 350 350 350 351 352 351 349 348 347 345 344
352 362 361 354 357 351 349 348 347 344 339 344 345 353 361 358 358 362 359 352 349 355 351 345 346 348 349 348 346 346 346 347 347 347 345 344 342 341
360 359 358 364 355 353 353 350 347 346 342 346 348 354 368 366 360 364 358 363 354 349 347 346 346 346 344 345 344 342 342 341 342 344 345 342 341 339
356 358 357 353 361 367 355 369 358 359 347 357 354 352 362 363 362 370 356 353 356 351 347 346 346 344 341 339 337 338 336 336 336 337 340 341 340 339
356 357 357 357 359 357 359 356 352 356 355 350 347 348 351 355 360 366 367 366 353 351 344 341 345 341 338 336 334 332 330 329 329 329 332 335 336 337
359 359 360 357 359 360 358 362 360 357 354 351 348 349 352 357 362 349 349 350 350 351 351 346 347 344 339 336 335 334 330 327 325 323 324 326 330 332
358 359 359 356 350 349 355 363 362 357 351 349 347 346 347 351 350 350 349 350 356 357 353 354 354 353 354 341 350 346 338 333 327 323 321 321 322 325
359 358 358 359 352 343 342 342 348 359 357 352 350 348 359 355 354 353 354 350 347 358 360 356 358 352 353 355 344 342 336 335 329 325 321 319 319 321
360 360 359 353 353 356 345 341 340 337 340 357 357 358 357 362 360 361 360 357 352 356 359 353 360 357 359 353 338 338 340 339 332 327 324 320 318 318
357 356 355 351 328 328 342 352 354 357 361 355 359 354 355 351 350 354 357 358 358 359 362 348 358 355 359 360 340 339 341 337 331 327 324 319 316 314
345 337 343 334 317 318 342 343 345 346 335 333 335 329 326 325 331 344 346 354 353 350 357 354 353 354 358 357 356 339 334 328 326 326 324 321 315 313
336 329 317 320 314 314 336 334 333 332 333 340 345 342 333 341 328 346 350 344 343 342 354 346 350 361 345 354 359 362 356 329 322 321 321 320 315 343
336 332 326 314 311 311 313 330 325 325 330 338 338 340 344 345 345 348 354 344 340 340 346 351 349 352 351 349 352 357 359 355 353 347 318 315 312 324
324 322 322 309 308 310 317 314 313 317 329 328 328 331 334 332 334 338 351 347 343 349 350 358 350 351 349 344 343 351 354 358 358 356 360 335 313 312
317 315 312 309 309 313 315 316 316 326 325 327 326 326 325 329 341 338 339 343 343 346 337 352 343 343 339 338 339 342 343 349 354 355 356 356 357 359
316 319 314 314 313 317 321 323 323 319 319 317 317 319 321 321 322 326 323 322 322 325 338 342 341 332 327 330 332 332 339 338 344 348 352 353 354 354
308 316 314 315 313 313 313 315 315 315 313 313 313 314 315 316 318 320 319 319 317 318 318 322 329 328 326 330 324 329 333 336 340 340 337 335 339 343
311 313 311 311 311 309 309 309 310 310 308 309 309 311 311 312 311 313 315 315 314 315 315 317 318 317 319 324 325 320 322 322 326 326 326 324 328 337
312 311 311 311 311 311 311 310 309 310 315 310 310 311 310 308 309 308 308 309 309 310 311 313 315 313 309 308 317 314 314 314 316 317 322 325 327 333
310 309 308 309 309 309 308 308 309 308 308 309 308 308 307 307 306 307 307 307 306 306 306 308 308 309 305 305 308 313 310 316 317 316 315 318 320 317
308 307 308 308 308 308 307 308 308 306 306 306 306 305 306 305 304 304 304 302 302 304 303 304 307 310 310 312 308 309 313 310 311 313 312 309 309 312
308 307 307 307 307 307 306 306 305 305 305 304 304 303 303 302 301 301 301 301 301 302 302 303 307 307 306 304 304 306 307 311 313 311 311 310 310 307
307 307 307 307 307 306 305 304 303 303 303 302 301 300 300 299 300 300 300 300 300 299 300 300 301 303 302 302 302 303 305 306 309 310 311 311 310 309

GFSNE_sfc_thetae_108.txt.gz
Theta_e
361 365 361 358 355 355 348 354 347 339 339 343 345 345 358 357 359 360 360 353 351 355 352 348 348 349 348 348 348 348 349 350 351 351 350 350 350 348
360 359 364 360 358 355 351 353 352 347 341 349 349 358 362 356 359 358 360 351 349 348 349 352 351 351 349 347 346 345 344 345 346 347 347 346 345 345
364 359 359 362 360 357 356 354 351 353 346 349 351 353 356 361 361 362 362 357 356 348 351 348 350 350 347 345 344 343 342 341 341 342 345 345 343 342
361 362 360 356 359 364 359 358 355 358 354 345 356 349 352 357 364 361 362 353 356 349 345 348 348 344 342 339 338 338 337 336 336 337 339 342 342 341
361 361 359 360 359 357 360 359 356 356 356 353 351 352 352 355 351 355 356 359 359 351 347 342 341 339 338 336 334 333 331 330 329 329 330 334 338 339
359 359 352 356 360 359 356 358 355 356 353 352 349 350 351 355 350 351 349 355 353 358 354 350 346 344 339 335 334 335 331 328 326 325 324 324 328 333
363 359 362 355 349 349 356 359 360 357 355 350 348 348 349 351 350 353 352 354 354 357 357 357 356 357 356 346 347 343 340 333 329 325 322 321 321 324
358 359 357 356 350 344 343 343 347 353 353 352 350 348 350 352 354 353 352 349 345 359 354 353 355 352 356 356 346 345 341 339 330 327 326 322 320 320
362 362 358 340 332 339 344 342 341 337 339 350 350 351 351 354 351 348 348 348 347 352 354 349 355 354 357 356 343 339 341 334 333 329 327 323 321 318
352 353 343 331 321 324 337 350 351 354 352 347 349 346 344 346 345 344 345 349 353 354 355 346 352 349 353 356 342 338 334 334 332 327 324 321 318 315
334 327 333 327 319 318 341 338 341 337 329 330 332 328 326 325 328 337 343 343 342 343 349 344 347 346 351 352 355 341 333 329 327 323 323 320 315 315
329 323 318 318 315 315 331 331 328 328 326 330 334 338 338 339 328 342 347 339 338 335 343 341 344 346 341 353 350 351 354 334 324 322 322 318 316 330
331 326 323 314 311 311 313 328 324 319 323 327 330 337 334 334 339 338 348 339 334 331 338 345 342 343 342 338 344 347 348 348 348 350 328 321 313 321
322 323 322 310 308 309 316 314 312 317 329 326 323 323 323 326 331 338 341 337 333 336 344 339 334 326 328 329 327 332 332 334 339 347 353 342 324 314
316 313 312 309 310 317 317 316 317 318 319 317 319 320 321 324 328 325 325 328 327 332 329 332 322 320 319 318 317 318 320 327 337 336 329 334 336 337
318 322 316 314 314 315 315 316 315 313 313 312 313 316 318 316 316 316 317 318 318 318 323 326 320 317 314 314 316 316 322 318 323 322 318 320 322 325
303 320 318 318 314 313 312 312 311 310 308 310 310 310 310 310 308 312 312 312 310 311 311 313 315 317 318 319 314 315 312 311 312 312 313 313 315 317
311 319 315 315 314 314 313 314 313 313 313 313 313 312 311 310 308 310 311 309 306 306 305 306 308 307 309 311 316 307 307 307 310 312 313 313 313 315
310 318 316 315 314 314 313 312 311 311 314 313 311 310 309 307 306 306 306 305 303 302 304 307 306 305 299 297 303 311 305 306 309 309 309 307 307 309
315 313 312 312 312 310 310 309 310 308 309 309 308 307 305 304 303 303 303 302 301 302 302 303 303 301 299 299 301 305 307 306 304 303 304 306 308 311
310 310 311 310 310 310 310 310 310 307 308 307 305 304 303 301 301 301 301 300 300 300 299 299 301 308 304 303 299 300 303 306 306 302 302 302 302 303
311 310 310 310 310 310 309 310 308 306 305 303 302 301 300 300 299 299 299 298 298 298 298 300 301 300 299 298 297 298 298 301 304 306 306 305 300 297
311 310 310 311 310 308 309 307 305 304 303 301 300 299 299 298 298 298 298 297 296 296 296 296 296 297 296 296 296 295 296 297 298 297 299 304 306 307

GFSNE_sfc_thetae_111.txt.gz
Theta_e
347 348 348 348 348 347 344 343 339 328 330 333 339 343 342 341 343 350 350 352 350 346 343 348 347 346 346 346 346 346 348 349 350 350 350 350 351 352
350 347 347 347 347 349 349 346 342 337 331 340 339 345 344 350 353 351 352 351 348 347 346 345 349 348 346 345 344 344 344 344 345 346 346 347 346 347
349 348 347 348 348 346 350 349 346 347 337 339 344 346 344 347 351 352 356 352 349 346 345 342 343 343 343 343 341 341 342 341 341 341 343 345 344 343
348 347 346 351 346 348 347 347 345 347 342 336 341 344 343 348 347 348 352 356 350 348 342 340 344 340 338 338 338 337 336 336 336 336 338 341 343 342
349 348 347 347 345 343 346 346 344 347 344 342 341 345 346 344 338 343 348 350 355 353 347 346 341 337 335 333 333 333 330 330 330 329 330 333 338 340
354 350 346 347 347 345 347 346 347 346 345 344 341 341 344 348 346 344 347 351 350 354 352 348 347 346 342 338 335 334 330 328 328 325 325 325 330 334
350 349 351 350 347 344 345 344 345 344 344 342 341 341 340 343 343 346 344 346 346 349 350 351 351 351 352 349 346 339 338 334 330 326 323 321 322 325
347 347 341 333 338 338 338 340 340 341 339 341 341 340 341 343 344 341 342 339 337 348 348 348 348 350 350 354 346 341 341 340 333 328 323 323 322 320
345 344 333 324 323 328 335 340 341 337 338 340 338 340 340 338 334 331 333 335 336 344 344 342 347 346 349 352 345 339 338 331 332 330 325 322 321 319
333 328 322 319 318 323 333 333 335 326 322 329 331 331 332 329 332 333 333 339 342 344 341 336 343 342 346 348 343 338 334 331 328 327 322 320 319 315
321 324 319 316 317 322 326 322 319 319 321 324 325 325 325 323 326 331 336 333 330 332 335 333 339 336 343 344 343 336 333 327 325 326 326 320 318 317
316 314 317 314 314 314 322 314 310 313 315 321 325 327 331 328 330 337 334 328 326 322 330 330 335 335 329 337 337 334 327 320 319 321 325 324 316 332
320 315 312 313 310 310 314 313 312 312 318 319 318 318 320 320 325 325 327 322 317 318 324 326 315 318 322 324 326 322 318 320 327 326 317 315 317 317
318 317 313 309 308 309 312 312 313 315 315 315 313 312 313 316 313 315 316 314 320 320 318 315 312 311 309 310 310 313 316 320 317 314 313 311 312 314
312 311 311 310 309 311 312 312 311 309 307 307 307 309 309 309 309 311 312 312 313 314 314 311 309 308 307 306 306 309 311 311 310 309 311 311 312 313
310 313 312 311 311 310 308 308 306 306 304 305 304 306 305 305 306 308 305 307 307 305 307 307 306 306 306 307 307 304 305 303 306 307 309 310 313 314
300 309 307 306 305 304 305 305 305 304 303 304 304 304 304 305 304 305 304 303 301 300 301 304 304 304 304 302 300 300 301 302 304 306 305 304 306 307
301 307 303 305 303 303 304 305 304 304 304 305 303 303 301 301 301 301 301 299 298 299 299 302 302 299 298 299 308 299 301 302 303 302 302 301 301 302
299 306 304 304 303 303 303 302 301 302 302 302 301 301 300 299 299 298 299 297 296 296 297 298 298 296 294 292 298 307 299 300 300 299 299 298 298 300
300 303 302 302 301 301 300 300 299 299 300 299 299 298 297 297 297 296 296 294 294 295 295 296 296 296 294 293 294 298 303 298 297 296 297 299 300 305
300 301 302 302 301 301 300 300 298 299 298 297 296 295 295 295 294 294 294 296 295 293 292 293 295 301 295 296 292 293 296 301 300 297 297 295 295 296
301 301 301 302 301 300 299 300 299 297 295 295 294 293 293 293 293 293 293 291 291 291 291 292 294 294 292 292 291 292 293 295 299 302 304 302 296 292
303 302 301 301 301 300 299 298 297 297 295 294 293 292 292 291 292 291 291 291 290 290 291 291 292 293 293 292 293 292 293 294 295 295 296 302 303 304

GFSNE_sfc_thetae_114.txt.gz
Theta_e
346 345 344 343 338 341 340 335 331 325 328 334 332 344 343 342 345 344 344 346 346 344 340 339 343 344 345 345 346 346 347 348 349 349 350 351 353 355
348 341 343 343 344 345 348 344 338 333 331 335 337 339 344 346 348 350 348 348 347 342 340 338 340 342 344 344 342 343 343 344 344 344 345 346 347 348
346 345 343 346 345 346 346 345 342 341 333 336 341 344 342 343 343 350 352 352 348 343 339 339 338 339 339 339 340 339 340 341 341 341 342 343 344 345
344 345 344 349 343 345 344 343 342 343 338 334 338 342 341 343 341 346 351 355 351 347 340 340 339 337 336 335 332 333 334 335 336 336 337 340 342 343
347 346 344 343 342 341 343 342 342 344 342 339 339 342 343 344 343 346 348 348 353 348 344 342 340 338 336 333 329 328 327 328 329 329 330 331 335 340
348 348 346 345 344 342 344 343 344 343 342 339 339 339 341 345 344 342 339 344 344 351 349 345 343 343 339 336 335 332 328 325 324 323 323 324 326 330
346 348 344 343 340 339 342 341 341 339 339 339 337 338 338 340 339 341 337 340 340 346 345 347 347 348 348 343 343 338 332 329 327 323 322 321 321 322
342 336 333 336 337 334 334 337 340 339 336 338 338 336 337 338 337 331 333 333 332 343 340 342 346 344 347 347 334 333 329 327 326 326 327 321 321 319
341 335 325 323 326 332 336 331 329 330 333 337 334 332 332 329 329 327 328 332 333 335 336 336 340 337 345 343 330 327 325 321 322 324 325 319 318 322
327 322 318 320 322 330 329 327 321 317 318 322 323 325 327 329 329 329 330 333 336 337 330 328 336 331 341 336 327 322 321 319 318 316 315 316 315 313
320 317 315 315 318 322 315 312 311 316 320 322 323 323 322 323 327 328 327 322 322 326 317 325 328 330 335 330 329 320 318 317 314 314 313 311 311 315
312 313 316 313 313 314 312 310 312 312 316 316 316 318 320 319 321 321 320 315 316 312 315 317 310 316 319 326 323 315 317 314 311 310 311 310 308 316
314 312 311 312 310 310 312 313 314 315 316 312 312 312 313 311 312 313 313 315 312 305 309 316 307 309 308 310 312 312 314 309 308 309 309 308 308 310
317 313 310 309 308 309 311 310 310 311 309 308 308 307 306 306 307 309 312 314 311 307 306 306 304 304 303 303 304 308 307 307 306 307 308 308 309 309
310 311 309 306 307 308 310 309 308 304 303 303 301 301 302 303 305 305 306 307 305 306 307 305 303 302 303 302 302 300 300 301 305 304 302 303 305 306
309 310 310 309 309 308 305 305 305 303 302 301 300 301 302 302 302 302 300 300 299 299 302 306 303 299 297 300 297 297 298 296 301 300 300 300 301 302
301 307 305 303 301 302 302 303 303 302 302 302 300 299 300 301 301 300 299 297 297 295 297 300 299 299 298 300 295 296 297 297 299 298 297 296 298 300
302 304 302 301 301 301 302 300 300 303 301 300 298 298 298 297 296 297 296 295 294 295 296 296 296 295 295 296 303 296 296 297 297 297 296 295 295 299
301 303 302 302 302 302 300 300 298 299 299 298 296 296 297 297 294 294 294 294 293 293 293 294 294 292 289 288 293 304 294 295 295 294 296 295 294 296
299 301 300 299 299 299 299 297 297 297 296 295 294 294 294 294 293 292 292 291 291 291 291 291 291 291 289 288 290 293 300 293 293 293 294 296 297 302
299 300 301 300 298 298 298 297 297 295 293 293 292 292 292 292 291 292 292 294 292 289 289 289 291 298 292 292 290 291 294 300 299 295 295 295 294 294
302 302 301 300 298 298 297 296 295 294 292 292 291 291 291 291 290 290 290 289 289 289 289 290 291 291 291 292 291 292 294 295 299 301 301 300 296 292
300 302 299 298 298 298 296 296 295 295 294 291 291 290 291 290 290 290 290 290 289 289 289 289 291 292 291 291 292 292 294 294 295 295 296 303 304 304

GFSNE_sfc_thetae_117.txt.gz
Theta_e
343 343 341 338 335 337 338 333 331 324 325 333 332 339 343 345 347 347 345 345 343 341 339 338 341 343 345 345 346 346 347 348 348 348 350 352 354 356
345 341 342 342 341 342 341 340 337 331 326 333 337 338 341 345 348 348 350 348 344 340 341 339 339 340 342 343 343 343 343 344 344 344 344 345 347 350
344 342 341 343 343 343 343 342 340 337 330 334 338 342 341 341 343 348 353 350 349 341 341 340 338 337 338 338 337 339 340 341 341 341 342 343 344 346
343 343 342 346 341 341 342 340 340 340 336 332 336 340 340 343 343 345 348 350 348 344 340 338 337 336 334 332 330 332 333 334 336 335 336 338 340 342
345 344 343 343 340 340 340 341 340 343 340 337 336 339 340 344 343 344 341 343 349 347 342 341 338 337 334 332 327 325 324 326 327 327 327 330 333 337
346 346 346 343 341 341 341 341 342 340 339 336 336 337 338 342 341 337 334 339 341 344 346 342 340 340 334 329 330 326 324 327 322 322 323 324 326 329
345 345 342 342 339 339 343 341 339 337 336 335 335 335 336 336 333 334 333 335 338 336 339 341 343 339 329 330 328 325 321 322 320 323 324 326 321 321
341 336 336 339 337 335 335 337 340 338 335 337 336 333 332 331 330 327 329 331 329 333 332 336 337 339 324 324 325 321 319 317 317 316 317 323 322 324
340 333 325 324 329 335 329 325 325 326 334 337 331 329 328 328 327 325 327 330 328 323 329 332 334 336 326 321 323 319 316 315 316 315 315 315 318 318
330 326 322 324 325 332 325 317 316 317 318 320 321 323 324 326 328 328 330 329 334 321 316 325 329 327 331 318 321 317 315 314 314 314 314 311 311 312
322 324 325 323 320 322 320 311 316 317 321 320 321 319 318 319 324 325 320 317 318 318 309 316 309 314 330 313 314 319 312 311 311 312 313 310 309 312
318 318 318 317 317 315 311 313 315 313 313 313 312 312 312 314 317 314 316 314 312 305 307 307 305 309 308 316 309 309 306 309 308 308 309 309 306 308
313 312 312 312 311 311 312 316 314 313 312 310 309 308 308 309 311 311 308 308 303 300 305 311 304 307 305 306 307 305 305 304 304 303 304 304 305 306
313 313 312 309 307 308 311 311 312 313 309 306 303 302 302 303 304 306 305 304 304 302 303 302 301 302 301 301 300 301 301 303 302 300 300 302 304 305
313 313 308 306 306 308 310 309 309 307 304 300 299 299 299 301 301 302 303 300 300 302 303 299 297 298 300 297 298 295 295 297 299 298 298 297 297 298
312 311 309 308 308 307 306 306 304 303 303 302 301 301 302 300 298 300 297 299 296 297 300 301 297 298 297 297 295 293 295 294 297 296 295 295 296 297
305 305 302 301 301 301 301 301 302 302 300 298 297 297 296 296 295 295 294 294 294 293 294 296 297 296 298 296 293 294 294 293 295 295 295 294 295 297
304 303 302 300 300 299 299 300 300 300 298 297 296 296 295 294 294 294 294 292 292 292 292 293 293 291 292 294 299 292 291 291 293 294 293 292 292 296
304 304 302 301 301 300 298 298 297 296 296 295 295 295 294 294 293 292 292 291 291 290 290 290 290 289 287 287 291 300 291 291 292 292 292 292 292 295
303 304 302 302 300 298 297 296 295 294 293 292 292 292 292 292 291 290 290 289 289 289 288 289 289 289 287 287 288 291 299 292 291 292 292 293 295 301
301 302 302 301 298 297 296 296 296 294 293 292 291 291 291 291 290 290 291 292 290 288 288 288 289 297 291 291 289 289 292 299 298 293 292 292 292 293
301 301 301 300 299 298 298 297 296 294 293 292 291 291 290 291 290 289 289 289 289 289 288 289 291 291 290 290 289 290 291 294 298 301 302 299 295 293
301 300 300 299 298 299 296 296 295 294 292 290 290 291 291 290 289 290 290 290 290 289 290 290 290 291 290 290 291 290 291 292 292 294 295 302 304 305

GFSNE_sfc_thetae_120.txt.gz
Theta_e
348 350 349 343 342 345 344 342 342 336 334 343 344 350 350 352 354 357 358 345 343 342 339 339 340 342 344 345 346 346 348 348 348 349 351 354 355 356
350 349 350 349 349 348 347 346 344 340 336 341 347 349 350 351 353 358 356 349 344 341 339 337 338 339 339 339 339 342 343 344 344 344 345 345 348 351
350 350 348 349 348 349 350 349 347 343 340 342 346 351 352 352 354 354 352 356 355 340 339 338 335 334 334 333 335 338 340 341 340 340 341 343 344 345
348 349 349 347 349 350 348 349 347 348 343 342 346 349 350 353 353 351 350 352 355 343 338 333 331 329 329 329 328 328 328 331 331 331 333 336 340 342
349 349 349 349 350 348 347 348 347 350 348 346 345 347 350 352 351 348 347 350 347 344 339 333 329 326 324 324 324 323 321 322 323 325 329 329 331 335
351 351 351 350 349 350 348 350 348 347 347 344 344 345 347 350 347 343 343 346 338 345 343 335 330 327 324 321 322 321 318 318 318 322 321 324 325 329
349 350 348 348 341 344 350 349 348 345 344 344 343 344 345 341 340 341 342 344 341 337 342 335 327 325 322 321 322 321 319 318 318 317 319 320 322 320
347 346 343 341 339 335 336 337 346 346 345 344 344 342 340 339 338 336 339 341 333 330 339 335 326 323 319 318 319 319 317 316 316 318 318 316 316 316
346 342 335 331 334 335 328 326 326 327 336 346 343 340 338 338 336 336 338 338 325 321 337 327 329 318 315 314 317 316 315 315 314 313 314 314 312 311
340 335 331 332 333 334 327 324 325 327 329 327 333 332 332 333 336 337 339 338 331 320 323 327 325 317 318 315 315 314 312 311 312 312 311 310 309 309
328 329 331 330 321 324 330 324 324 322 318 318 318 317 317 319 327 334 327 329 327 318 314 319 316 322 313 311 312 312 311 308 307 309 309 308 306 307
321 320 319 321 316 316 321 322 322 320 320 318 317 317 318 317 316 322 325 323 320 313 311 314 313 317 320 311 310 310 308 307 305 305 306 305 304 307
317 315 315 312 310 311 313 324 321 318 315 314 313 314 313 313 312 311 312 314 310 307 307 315 311 313 314 312 308 308 306 304 304 304 303 302 303 304
314 314 314 308 307 309 313 310 310 314 313 312 310 310 308 308 307 307 308 308 307 305 306 309 308 308 310 309 304 304 305 303 303 302 303 303 303 303
315 312 308 305 306 309 310 311 312 310 307 306 306 306 306 307 308 307 307 307 306 305 304 304 306 306 305 304 301 300 300 302 301 300 301 302 302 303
313 313 310 308 308 308 310 309 307 307 308 307 306 305 305 303 303 304 303 302 300 299 302 304 306 307 300 300 300 298 299 297 299 300 301 302 303 303
309 308 307 307 306 307 307 308 308 307 306 305 304 302 301 301 300 301 299 299 298 297 297 299 302 304 302 302 297 298 298 298 300 300 300 300 302 302
309 308 306 306 306 306 306 305 305 303 303 303 302 301 300 299 299 299 299 297 296 296 296 297 298 299 299 301 301 297 298 298 299 300 301 299 300 303
307 308 307 306 304 303 303 304 302 301 302 301 300 300 299 298 298 297 297 296 295 296 296 297 297 298 296 295 299 300 298 298 299 299 300 299 299 301
303 305 304 304 304 303 302 301 299 299 299 299 299 299 298 297 296 295 296 295 295 295 296 297 297 296 296 296 296 299 299 299 299 298 299 300 302 303
305 305 304 304 303 303 303 301 299 298 298 298 297 297 297 297 295 296 295 294 294 295 294 295 296 297 299 298 297 297 300 300 300 299 300 299 298 300
305 305 305 305 304 304 302 300 300 298 297 297 297 297 297 297 295 295 295 295 296 296 296 297 298 298 298 297 296 296 298 301 302 301 302 301 299 296
305 305 305 304 303 303 302 300 299 298 298 297 296 296 295 295 296 295 296 296 296 295 296 297 297 298 298 297 296 296 297 298 299 299 301 304 304 305

GFSNE_sfc_thetae_123.txt.gz
Theta_e
358 359 357 355 353 354 354 352 346 337 339 349 351 359 359 362 358 363 360 343 343 340 338 337 338 340 340 341 343 346 348 351 350 350 351 356 357 357
356 360 361 357 356 355 354 355 352 350 340 350 354 358 360 358 357 359 357 352 340 337 334 332 334 335 336 337 338 341 345 345 345 345 346 347 349 352
359 360 359 360 355 356 357 358 354 354 345 350 354 361 362 360 359 358 360 361 343 334 331 329 329 330 331 332 333 335 336 336 336 337 339 343 344 346
357 358 358 355 359 361 357 360 357 357 350 350 355 357 360 361 357 358 355 356 342 331 328 327 325 324 324 324 323 325 325 327 329 332 334 336 339 343
359 357 357 358 360 357 359 359 353 357 355 354 350 355 358 359 354 356 353 353 350 334 328 325 324 324 323 322 321 319 317 319 321 325 327 329 331 334
359 359 358 358 358 360 357 360 358 359 357 352 349 349 353 359 353 351 347 348 349 338 330 327 326 326 323 322 322 321 318 318 318 319 320 322 324 327
357 358 358 353 345 349 361 360 360 359 357 356 346 349 350 348 348 351 350 343 344 348 335 333 328 326 325 322 324 320 319 318 316 315 314 314 316 319
351 354 357 345 345 337 338 339 347 358 355 355 353 350 352 346 346 347 349 349 336 344 335 328 325 321 320 318 316 317 316 315 316 314 313 312 312 314
354 356 354 349 340 351 332 330 329 328 334 355 354 354 347 347 348 346 350 345 335 337 342 326 326 317 317 314 314 313 313 313 312 313 313 311 310 309
349 352 353 347 345 345 340 338 336 336 338 338 344 345 344 347 348 350 351 339 334 330 341 331 326 321 317 312 311 309 309 309 310 309 309 308 308 306
338 338 341 343 324 327 340 334 330 325 318 318 318 318 316 319 329 344 340 341 337 328 327 329 326 319 318 316 313 309 309 307 307 307 307 306 305 306
325 326 318 322 314 317 338 330 326 324 326 325 327 325 325 321 320 332 336 331 333 323 321 323 323 328 320 317 315 315 312 308 306 305 305 304 302 314
324 323 321 313 311 311 313 326 325 323 319 323 324 324 322 321 320 320 321 323 325 319 312 321 320 319 322 319 313 313 311 310 311 310 304 303 303 305
322 319 318 308 307 310 316 310 312 317 320 318 318 315 315 313 315 314 315 313 314 313 314 319 318 315 317 317 314 312 312 309 309 309 310 306 304 304
320 316 310 305 308 311 311 312 314 318 315 315 313 311 315 313 313 311 310 313 312 312 312 316 313 313 314 313 309 306 307 307 308 308 309 309 309 310
314 314 311 310 310 311 314 315 314 313 316 309 309 310 310 313 311 312 311 310 308 306 311 313 314 311 306 306 307 306 307 307 308 308 309 309 310 310
311 311 311 311 313 314 315 316 316 317 317 315 314 312 311 312 310 311 311 311 309 306 304 307 309 309 308 308 305 306 307 306 307 307 310 309 308 309
311 311 310 310 311 313 314 314 313 312 313 313 311 311 310 310 308 306 306 306 302 302 303 306 306 305 306 306 304 307 307 307 308 310 309 307 309 311
309 309 310 309 308 308 307 306 305 304 308 308 309 308 307 305 304 303 304 303 303 304 304 306 306 304 302 303 304 300 305 307 307 309 308 307 305 308
305 308 307 306 307 306 307 303 303 303 303 305 304 307 307 305 304 303 304 303 303 304 304 305 304 304 303 303 303 304 299 304 305 305 306 307 308 306
307 309 311 309 307 306 307 305 305 305 304 305 306 306 304 304 302 302 302 298 299 302 302 303 303 298 305 305 302 303 306 301 302 304 305 304 304 304
311 312 313 313 311 312 311 308 306 304 304 302 302 303 301 301 303 302 302 301 302 303 304 304 305 306 305 303 301 300 303 307 306 303 303 302 303 300
314 315 314 313 313 312 310 308 308 306 303 303 304 302 301 300 301 301 301 301 301 303 303 303 303 303 301 300 298 300 301 302 303 303 306 305 305 305